N8MS Weather Reports


Display with metric or nautical units.
time (UTC)temp
F
wind
direction
speed
MPH
gust
MPH
rain 1hr
in
rain 24hr
in
rain mn
in
humidity
%
barometer
mb
20260510172808 58 281 5.0 13.0 0.00 0.00 0.00 39 1019.7
20260510172704 58 242 5.0 13.0 0.00 0.00 0.00 40 1019.6
20260510172614 58 295 5.0 13.0 0.00 0.00 0.00 41 1019.7
20260510172503 58 286 8.0 13.0 0.00 0.00 0.00 40 1019.7
20260510172414 58 290 9.0 13.0 0.00 0.00 0.00 40 1019.7
20260510172323 58 293 6.0 12.0 0.00 0.00 0.00 44 1019.6
20260510172212 58 305 6.0 12.0 0.00 0.00 0.00 46 1019.6
20260510172123 58 318 7.0 12.0 0.00 0.00 0.00 42 1019.6
20260510172013 58 286 7.0 12.0 0.00 0.00 0.00 42 1019.7
20260510171905 58 332 6.0 17.0 0.00 0.00 0.00 42 1019.6
20260510171800 58 5 7.0 17.0 0.00 0.00 0.00 43 1019.6
20260510171710 58 323 6.0 17.0 0.00 0.00 0.00 43 1019.5
20260510171612 58 280 5.0 17.0 0.00 0.00 0.00 41 1019.6
20260510171440 58 301 6.0 17.0 0.00 0.00 0.00 42 1019.5
20260510171329 58 313 7.0 17.0 0.00 0.00 0.00 40 1019.6
20260510171129 59 321 9.0 17.0 0.00 0.00 0.00 40 1019.5
20260510171018 59 349 6.0 11.0 0.00 0.00 0.00 43 1019.5
20260510170909 59 317 5.0 10.0 0.00 0.00 0.00 43 1019.6
20260510170759 59 304 6.0 10.0 0.00 0.00 0.00 43 1019.5
20260510170711 59 298 6.0 11.0 0.00 0.00 0.00 43 1019.4
20260510170604 59 13 5.0 11.0 0.00 0.00 0.00 44 1019.6
20260510170514 59 311 4.0 11.0 0.00 0.00 0.00 44 1019.5
20260510170404 59 298 3.0 11.0 0.00 0.00 0.00 46 1019.5
20260510170257 59 295 2.0 11.0 0.00 0.00 0.00 50 1019.4
20260510170205 59 296 3.0 11.0 0.00 0.00 0.00 44 1019.5
20260510170117 58 333 4.0 11.0 0.00 0.00 0.00 42 1019.4
20260510170017 59 29 5.0 11.0 0.00 0.00 0.00 42 1019.5
20260510165908 58 318 7.0 11.0 0.00 0.00 0.00 46 1019.5
20260510165756 58 299 5.0 11.0 0.00 0.00 0.00 46 1019.5
20260510165707 58 329 4.0 11.0 0.00 0.00 0.00 43 1019.4
20260510165533 58 291 5.0 11.0 0.00 0.00 0.00 48 1019.5
20260510165404 58 296 6.0 11.0 0.00 0.00 0.00 41 1019.4
20260510165314 58 302 6.0 11.0 0.00 0.00 0.00 44 1019.4
20260510165204 58 278 4.0 11.0 0.00 0.00 0.00 46 1019.3
20260510165114 58 284 5.0 11.0 0.00 0.00 0.00 46 1019.4
20260510165005 58 348 6.0 11.0 0.00 0.00 0.00 43 1019.4
20260510164917 58 13 6.0 11.0 0.00 0.00 0.00 47 1019.4
20260510164827 58 317 7.0 11.0 0.00 0.00 0.00 45 1019.4
20260510164716 58 296 5.0 11.0 0.00 0.00 0.00 48 1019.4
20260510164610 57 259 4.0 11.0 0.00 0.00 0.00 45 1019.3
20260510164533 57 231 4.0 11.0 0.00 0.00 0.00 43 1019.4
20260510164403 57 263 4.0 11.0 0.00 0.00 0.00 42 1019.4
20260510164313 57 262 4.0 11.0 0.00 0.00 0.00 43 1019.4
20260510164204 57 280 4.0 11.0 0.00 0.00 0.00 45 1019.5
20260510164056 57 287 5.0 11.0 0.00 0.00 0.00 45 1019.5
20260510164006 58 329 7.0 11.0 0.00 0.00 0.00 41 1019.6
20260510163858 58 325 6.0 11.0 0.00 0.00 0.00 42 1019.5
20260510163808 58 315 5.0 11.0 0.00 0.00 0.00 45 1019.5
20260510163702 58 261 6.0 11.0 0.00 0.00 0.00 45 1019.4
20260510163614 58 313 6.0 11.0 0.00 0.00 0.00 45 1019.4
20260510163505 58 315 5.0 11.0 0.00 0.00 0.00 43 1019.5
20260510163356 58 308 2.0 11.0 0.00 0.00 0.00 45 1019.4
20260510163308 58 319 1.0 11.0 0.00 0.00 0.00 46 1019.5
20260510163217 57 158 1.0 11.0 0.00 0.00 0.00 48 1019.5
20260510163128 57 297 5.0 11.0 0.00 0.00 0.00 46 1019.5
20260510163029 57 300 7.0 11.0 0.00 0.00 0.00 45 1019.4
20260510162919 57 272 7.0 11.0 0.00 0.00 0.00 45 1019.4
20260510162809 57 284 5.0 11.0 0.00 0.00 0.00 47 1019.5
20260510162724 57 284 5.0 11.0 0.00 0.00 0.00 47 1019.4
20260510162614 57 279 5.0 11.0 0.00 0.00 0.00 43 1019.4
20260510162525 57 294 3.0 9.0 0.00 0.00 0.00 42 1019.4
20260510162435 57 288 3.0 10.0 0.00 0.00 0.00 42 1019.4
20260510162325 57 286 3.0 10.0 0.00 0.00 0.00 44 1019.4
20260510162235 57 296 3.0 13.0 0.00 0.00 0.00 44 1019.4
20260510162104 57 24 4.0 13.0 0.00 0.00 0.00 43 1019.4
20260510162014 57 5 5.0 13.0 0.00 0.00 0.00 44 1019.4
20260510161925 57 348 6.0 13.0 0.00 0.00 0.00 44 1019.4
20260510161835 57 314 6.0 13.0 0.00 0.00 0.00 43 1019.3
20260510161705 57 292 7.0 13.0 0.00 0.00 0.00 42 1019.3
20260510161619 57 336 8.0 13.0 0.00 0.00 0.00 43 1019.3
20260510161541 57 284 9.0 13.0 0.00 0.00 0.00 42 1019.3
20260510161410 57 305 9.0 13.0 0.00 0.00 0.00 41 1019.3
20260510161301 57 297 9.0 13.0 0.00 0.00 0.00 41 1019.3
20260510161212 57 295 9.0 13.0 0.00 0.00 0.00 44 1019.3
20260510161102 57 317 8.0 13.0 0.00 0.00 0.00 43 1019.3
20260510161014 57 331 6.0 10.0 0.00 0.00 0.00 44 1019.3
20260510160903 57 316 5.0 9.0 0.00 0.00 0.00 44 1019.2
20260510160812 57 323 5.0 9.0 0.00 0.00 0.00 44 1019.3
20260510160703 57 10 5.0 9.0 0.00 0.00 0.00 42 1019.3
20260510160557 57 301 4.0 9.0 0.00 0.00 0.00 44 1019.3
20260510160508 57 315 5.0 9.0 0.00 0.00 0.00 43 1019.3
20260510160332 57 317 5.0 9.0 0.00 0.00 0.00 44 1019.3
20260510160201 57 333 5.0 9.0 0.00 0.00 0.00 45 1019.4
20260510160112 57 273 4.0 9.0 0.00 0.00 0.00 45 1019.3
20260510160034 57 313 4.0 9.0 0.00 0.00 0.00 46 1019.3
20260510155903 57 296 4.0 8.0 0.00 0.00 0.00 46 1019.3
20260510155755 57 360 5.0 8.0 0.00 0.00 0.00 43 1019.3
20260510155709 57 38 4.0 8.0 0.00 0.00 0.00 41 1019.4
20260510155558 57 5 3.0 8.0 0.00 0.00 0.00 41 1019.2
20260510155510 57 269 5.0 8.0 0.00 0.00 0.00 42 1019.3
20260510155421 57 309 4.0 10.0 0.00 0.00 0.00 43 1019.3
20260510155311 57 279 2.0 10.0 0.00 0.00 0.00 44 1019.3
20260510155220 57 277 2.0 10.0 0.00 0.00 0.00 42 1019.3
20260510155130 57 277 3.0 10.0 0.00 0.00 0.00 42 1019.3
20260510155019 57 260 5.0 10.0 0.00 0.00 0.00 47 1019.4
20260510154909 57 254 5.0 10.0 0.00 0.00 0.00 43 1019.3
20260510154758 57 273 5.0 10.0 0.00 0.00 0.00 44 1019.3
20260510154711 57 262 4.0 10.0 0.00 0.00 0.00 44 1019.2
20260510154605 57 248 3.0 5.0 0.00 0.00 0.00 42 1019.2
20260510154526 56 249 3.0 5.0 0.00 0.00 0.00 44 1019.2
20260510154357 56 281 2.0 5.0 0.00 0.00 0.00 44 1019.2
20260510154307 56 300 2.0 7.0 0.00 0.00 0.00 43 1019.3
20260510154158 56 341 1.0 8.0 0.00 0.00 0.00 44 1019.3
20260510154111 56 338 1.0 9.0 0.00 0.00 0.00 44 1019.3
20260510154002 56 96 1.0 9.0 0.00 0.00 0.00 46 1019.3
20260510153913 56 96 2.0 9.0 0.00 0.00 0.00 43 1019.4
20260510153807 56 96 3.0 9.0 0.00 0.00 0.00 45 1019.3
20260510153658 56 123 4.0 9.0 0.00 0.00 0.00 42 1019.2
20260510153609 56 117 6.0 9.0 0.00 0.00 0.00 42 1019.2
20260510153500 56 118 6.0 9.0 0.00 0.00 0.00 41 1019.2
20260510153412 56 146 6.0 9.0 0.00 0.00 0.00 43 1019.2
20260510153305 56 107 7.0 9.0 0.00 0.00 0.00 42 1019.3
20260510153214 56 103 7.0 9.0 0.00 0.00 0.00 42 1019.3
20260510153126 56 99 4.0 9.0 0.00 0.00 0.00 45 1019.2
20260510153027 56 97 4.0 9.0 0.00 0.00 0.00 45 1019.2
20260510152902 56 72 5.0 9.0 0.00 0.00 0.00 42 1019.2
20260510152812 56 95 6.0 9.0 0.00 0.00 0.00 42 1019.2
20260510152703 56 86 6.0 9.0 0.00 0.00 0.00 43 1019.3
20260510152613 56 59 5.0 9.0 0.00 0.00 0.00 44 1019.3
20260510152505 56 58 6.0 9.0 0.00 0.00 0.00 44 1019.3
20260510152416 56 27 5.0 9.0 0.00 0.00 0.00 45 1019.3
20260510152328 56 19 5.0 9.0 0.00 0.00 0.00 44 1019.3
20260510152156 56 44 4.0 9.0 0.00 0.00 0.00 46 1019.3
20260510152108 56 338 4.0 9.0 0.00 0.00 0.00 43 1019.2
20260510151957 56 334 5.0 9.0 0.00 0.00 0.00 44 1019.2
20260510151851 56 311 5.0 9.0 0.00 0.00 0.00 45 1019.2
20260510151741 56 290 3.0 9.0 0.00 0.00 0.00 44 1019.3
20260510151630 56 294 4.0 9.0 0.00 0.00 0.00 43 1019.2
20260510151531 56 273 4.0 9.0 0.00 0.00 0.00 43 1019.2
20260510151420 56 350 4.0 9.0 0.00 0.00 0.00 44 1019.2
20260510151311 56 289 5.0 9.0 0.00 0.00 0.00 44 1019.1
20260510151201 56 340 4.0 9.0 0.00 0.00 0.00 43 1019.1
20260510151113 56 288 2.0 4.0 0.00 0.00 0.00 43 1019.2
20260510151023 55 346 2.0 4.0 0.00 0.00 0.00 42 1019.1
20260510150934 55 45 2.0 4.0 0.00 0.00 0.00 43 1019.1
20260510150824 55 11 1.0 4.0 0.00 0.00 0.00 44 1019.2
20260510150657 55 292 2.0 4.0 0.00 0.00 0.00 42 1019.1
20260510150609 55 292 2.0 4.0 0.00 0.00 0.00 44 1019.2
20260510150459 55 326 1.0 6.0 0.00 0.00 0.00 45 1019.1
20260510150410 55 299 1.0 6.0 0.00 0.00 0.00 42 1019.1
20260510150323 55 299 2.0 6.0 0.00 0.00 0.00 45 1019.1
20260510150211 55 312 3.0 6.0 0.00 0.00 0.00 46 1019.1
20260510150114 55 281 2.0 6.0 0.00 0.00 0.00 44 1019.2
20260510150016 55 309 2.0 8.0 0.00 0.00 0.00 43 1019.1
20260510145907 55 318 2.0 8.0 0.00 0.00 0.00 40 1019.2
20260510145817 55 318 3.0 8.0 0.00 0.00 0.00 40 1019.2
20260510145708 55 324 3.0 8.0 0.00 0.00 0.00 40 1019.1
20260510145622 55 299 2.0 8.0 0.00 0.00 0.00 41 1019.1
20260510145535 55 311 3.0 8.0 0.00 0.00 0.00 42 1019.2
20260510145406 55 303 4.0 8.0 0.00 0.00 0.00 41 1019.1
20260510145255 55 317 5.0 8.0 0.00 0.00 0.00 41 1019.0
20260510145206 55 307 5.0 8.0 0.00 0.00 0.00 43 1018.9
20260510145057 55 342 6.0 8.0 0.00 0.00 0.00 44 1019.0
20260510145007 55 347 4.0 8.0 0.00 0.00 0.00 42 1019.0
20260510144919 55 355 2.0 6.0 0.00 0.00 0.00 44 1018.9
20260510144809 55 38 3.0 6.0 0.00 0.00 0.00 43 1019.0
20260510144705 55 31 5.0 6.0 0.00 0.00 0.00 41 1018.9
20260510144556 55 22 5.0 6.0 0.00 0.00 0.00 44 1018.9
20260510144517 56 22 5.0 6.0 0.00 0.00 0.00 44 1018.8
20260510144407 55 344 4.0 7.0 0.00 0.00 0.00 45 1018.8
20260510144258 55 21 3.0 5.0 0.00 0.00 0.00 46 1018.8
20260510144207 55 56 3.0 5.0 0.00 0.00 0.00 46 1018.8
20260510144117 55 55 3.0 5.0 0.00 0.00 0.00 48 1018.7
20260510144008 55 49 3.0 5.0 0.00 0.00 0.00 46 1018.8
20260510143918 55 333 2.0 5.0 0.00 0.00 0.00 44 1018.7
20260510143810 55 253 2.0 5.0 0.00 0.00 0.00 44 1018.7
20260510143704 55 311 2.0 5.0 0.00 0.00 0.00 45 1018.7
20260510143616 55 335 2.0 5.0 0.00 0.00 0.00 45 1018.8
20260510143526 55 334 2.0 5.0 0.00 0.00 0.00 44 1018.8
20260510143356 55 329 1.0 6.0 0.00 0.00 0.00 43 1018.7
20260510143308 55 21 1.0 9.0 0.00 0.00 0.00 44 1018.7
20260510143157 55 19 1.0 9.0 0.00 0.00 0.00 43 1018.7
20260510143108 55 17 2.0 9.0 0.00 0.00 0.00 44 1018.7
20260510143030 54 360 2.0 9.0 0.00 0.00 0.00 45 1018.6
20260510142900 54 22 3.0 9.0 0.00 0.00 0.00 45 1018.6
20260510142810 54 42 3.0 9.0 0.00 0.00 0.00 46 1018.6
20260510142724 54 40 4.0 9.0 0.00 0.00 0.00 44 1018.6
20260510142615 54 46 5.0 9.0 0.00 0.00 0.00 44 1018.6
20260510142525 54 36 6.0 9.0 0.00 0.00 0.00 44 1018.6
20260510142435 54 23 6.0 10.0 0.00 0.00 0.00 45 1018.6
20260510142306 54 18 5.0 10.0 0.00 0.00 0.00 45 1018.6
20260510142217 54 330 4.0 10.0 0.00 0.00 0.00 46 1018.5
20260510142107 54 5 4.0 10.0 0.00 0.00 0.00 46 1018.6
20260510142017 54 355 5.0 10.0 0.00 0.00 0.00 45 1018.5
20260510141909 54 17 6.0 10.0 0.00 0.00 0.00 46 1018.4
20260510141758 54 26 5.0 10.0 0.00 0.00 0.00 45 1018.5
20260510141711 54 22 6.0 10.0 0.00 0.00 0.00 44 1018.5
20260510141626 54 9 6.0 10.0 0.00 0.00 0.00 47 1018.4
20260510141528 54 19 5.0 9.0 0.00 0.00 0.00 47 1018.5
20260510141358 54 15 5.0 8.0 0.00 0.00 0.00 45 1018.5
20260510141308 54 321 4.0 8.0 0.00 0.00 0.00 47 1018.5
20260510141218 54 14 3.0 8.0 0.00 0.00 0.00 46 1018.5
20260510141128 54 30 3.0 8.0 0.00 0.00 0.00 47 1018.5
20260510140958 54 55 3.0 8.0 0.00 0.00 0.00 44 1018.5
20260510140909 54 82 4.0 8.0 0.00 0.00 0.00 45 1018.5
20260510140821 54 82 5.0 8.0 0.00 0.00 0.00 44 1018.6
20260510140711 54 98 4.0 8.0 0.00 0.00 0.00 44 1018.6
20260510140606 54 93 4.0 8.0 0.00 0.00 0.00 45 1018.6
20260510140457 54 89 4.0 8.0 0.00 0.00 0.00 47 1018.6
20260510140408 54 81 5.0 8.0 0.00 0.00 0.00 45 1018.6
20260510140259 54 109 5.0 8.0 0.00 0.00 0.00 46 1018.6
20260510140209 54 102 5.0 7.0 0.00 0.00 0.00 44 1018.5
20260510140101 54 40 5.0 7.0 0.00 0.00 0.00 44 1018.6
20260510140023 54 61 5.0 8.0 0.00 0.00 0.00 45 1018.6
20260510135914 54 92 3.0 8.0 0.00 0.00 0.00 46 1018.6
20260510135805 54 93 3.0 8.0 0.00 0.00 0.00 45 1018.6
20260510135720 54 78 4.0 8.0 0.00 0.00 0.00 45 1018.7
20260510135630 54 79 4.0 8.0 0.00 0.00 0.00 45 1018.6
20260510135542 54 79 3.0 7.0 0.00 0.00 0.00 45 1018.6
20260510135431 54 69 3.0 7.0 0.00 0.00 0.00 45 1018.6
20260510135301 54 80 3.0 7.0 0.00 0.00 0.00 47 1018.6
20260510135212 54 62 2.0 5.0 0.00 0.00 0.00 47 1018.6
20260510135104 54 71 4.0 10.0 0.00 0.00 0.00 45 1018.5
20260510135013 54 23 4.0 10.0 0.00 0.00 0.00 47 1018.5
20260510134905 54 25 2.0 10.0 0.00 0.00 0.00 47 1018.5
20260510134759 54 11 2.0 10.0 0.00 0.00 0.00 48 1018.6
20260510134710 54 57 2.0 10.0 0.00 0.00 0.00 46 1018.5
20260510134600 54 69 3.0 10.0 0.00 0.00 0.00 45 1018.6
20260510134523 54 69 4.0 10.0 0.00 0.00 0.00 45 1018.5
20260510134413 54 80 4.0 10.0 0.00 0.00 0.00 47 1018.5
20260510134304 54 109 4.0 6.0 0.00 0.00 0.00 46 1018.5
20260510134214 54 78 4.0 6.0 0.00 0.00 0.00 47 1018.5
20260510134125 54 78 4.0 7.0 0.00 0.00 0.00 51 1018.5
20260510134014 54 44 3.0 7.0 0.00 0.00 0.00 49 1018.5
20260510133904 54 93 3.0 5.0 0.00 0.00 0.00 49 1018.4
20260510133757 53 93 3.0 5.0 0.00 0.00 0.00 49 1018.5
20260510133708 53 67 3.0 5.0 0.00 0.00 0.00 50 1018.4
20260510133618 53 45 3.0 5.0 0.00 0.00 0.00 47 1018.4
20260510133529 53 50 3.0 5.0 0.00 0.00 0.00 48 1018.4
20260510133357 53 12 3.0 5.0 0.00 0.00 0.00 48 1018.4
20260510133310 53 41 2.0 5.0 0.00 0.00 0.00 46 1018.4
20260510133218 53 38 2.0 6.0 0.00 0.00 0.00 49 1018.5
20260510133129 53 57 1.0 6.0 0.00 0.00 0.00 48 1018.4
20260510133051 53 56 2.0 6.0 0.00 0.00 0.00 50 1018.4
20260510132900 53 113 3.0 6.0 0.00 0.00 0.00 51 1018.4
20260510132756 53 113 2.0 6.0 0.00 0.00 0.00 53 1018.4
20260510132706 53 126 1.0 6.0 0.00 0.00 0.00 52 1018.4
20260510132616 53 126 1.0 6.0 0.00 0.00 0.00 52 1018.3
20260510132506 52 101 2.0 6.0 0.00 0.00 0.00 52 1018.4
20260510132356 52 101 4.0 6.0 0.00 0.00 0.00 51 1018.4
20260510132306 52 69 4.0 7.0 0.00 0.00 0.00 55 1018.4
20260510132156 52 105 2.0 7.0 0.00 0.00 0.00 55 1018.3
20260510132108 52 96 2.0 7.0 0.00 0.00 0.00 54 1018.4
20260510132019 52 70 2.0 7.0 0.00 0.00 0.00 52 1018.4
20260510131909 52 70 3.0 7.0 0.00 0.00 0.00 51 1018.4
20260510131805 52 96 4.0 7.0 0.00 0.00 0.00 53 1018.3
20260510131715 52 92 4.0 7.0 0.00 0.00 0.00 52 1018.3
20260510131627 52 117 3.0 7.0 0.00 0.00 0.00 55 1018.3
20260510131547 52 111 4.0 6.0 0.00 0.00 0.00 54 1018.3
20260510131438 52 96 2.0 5.0 0.00 0.00 0.00 56 1018.3
20260510131328 52 81 1.0 5.0 0.00 0.00 0.00 57 1018.2
20260510131218 52 81 1.0 5.0 0.00 0.00 0.00 57 1018.2
20260510131127 52 81 2.0 5.0 0.00 0.00 0.00 57 1018.2
20260510130958 52 94 2.0 5.0 0.00 0.00 0.00 55 1018.2
20260510130910 52 74 2.0 5.0 0.00 0.00 0.00 56 1018.2
20260510130820 52 74 3.0 5.0 0.00 0.00 0.00 56 1018.2
20260510130710 52 51 3.0 5.0 0.00 0.00 0.00 56 1018.1
20260510130558 52 45 4.0 5.0 0.00 0.00 0.00 57 1018.2
20260510130508 52 49 3.0 5.0 0.00 0.00 0.00 58 1018.2
20260510130419 52 43 2.0 4.0 0.00 0.00 0.00 60 1018.2
20260510130332 51 74 2.0 4.0 0.00 0.00 0.00 60 1018.2
20260510130200 51 81 2.0 4.0 0.00 0.00 0.00 61 1018.2
20260510130112 51 80 2.0 6.0 0.00 0.00 0.00 60 1018.0
20260510130034 51 78 2.0 7.0 0.00 0.00 0.00 59 1018.1
20260510125903 51 60 2.0 7.0 0.00 0.00 0.00 59 1018.0
20260510125815 51 62 2.0 7.0 0.00 0.00 0.00 59 1018.0
20260510125724 51 44 2.0 7.0 0.00 0.00 0.00 61 1018.0
20260510125619 51 94 2.0 7.0 0.00 0.00 0.00 61 1017.9
20260510125508 51 92 3.0 7.0 0.00 0.00 0.00 60 1017.9
20260510125419 51 96 4.0 7.0 0.00 0.00 0.00 57 1018.0
20260510125308 51 88 4.0 7.0 0.00 0.00 0.00 57 1017.9
20260510125220 51 100 4.0 7.0 0.00 0.00 0.00 59 1018.0
20260510125129 51 78 3.0 6.0 0.00 0.00 0.00 58 1017.9
20260510124957 50 88 2.0 6.0 0.00 0.00 0.00 59 1017.9
20260510124908 50 99 2.0 6.0 0.00 0.00 0.00 59 1017.8
20260510124758 50 111 2.0 6.0 0.00 0.00 0.00 60 1017.8
20260510124710 50 65 2.0 6.0 0.00 0.00 0.00 60 1017.7
20260510124621 50 69 3.0 6.0 0.00 0.00 0.00 58 1017.7
20260510124547 50 92 4.0 6.0 0.00 0.00 0.00 58 1017.7
20260510124416 50 107 3.0 6.0 0.00 0.00 0.00 59 1017.7
20260510124306 50 90 3.0 4.0 0.00 0.00 0.00 58 1017.7
20260510124216 50 86 1.0 4.0 0.00 0.00 0.00 62 1017.7
20260510124105 50 89 1.0 4.0 0.00 0.00 0.00 62 1017.8
20260510124017 50 89 2.0 4.0 0.00 0.00 0.00 60 1017.8
20260510123928 50 91 3.0 4.0 0.00 0.00 0.00 60 1017.7
20260510123817 50 114 3.0 4.0 0.00 0.00 0.00 59 1017.7
20260510123708 50 100 3.0 4.0 0.00 0.00 0.00 59 1017.7
20260510123558 50 104 3.0 4.0 0.00 0.00 0.00 60 1017.7
20260510123509 50 94 2.0 6.0 0.00 0.00 0.00 61 1017.8
20260510123420 50 101 2.0 6.0 0.00 0.00 0.00 61 1017.7
20260510123316 50 101 2.0 6.0 0.00 0.00 0.00 61 1017.7
20260510123205 50 101 3.0 6.0 0.00 0.00 0.00 61 1017.7
20260510123056 50 96 3.0 6.0 0.00 0.00 0.00 62 1017.7
20260510123019 50 101 3.0 6.0 0.00 0.00 0.00 62 1017.7
20260510122908 50 96 2.0 6.0 0.00 0.00 0.00 63 1017.8
20260510122821 50 128 2.0 6.0 0.00 0.00 0.00 64 1017.8
20260510122733 50 76 2.0 6.0 0.00 0.00 0.00 65 1017.7
20260510122603 51 130 3.0 6.0 0.00 0.00 0.00 63 1017.8
20260510122514 51 115 2.0 4.0 0.00 0.00 0.00 64 1017.6
20260510122426 51 131 2.0 4.0 0.00 0.00 0.00 64 1017.6
20260510122259 51 120 1.0 3.0 0.00 0.00 0.00 67 1017.7
20260510122211 51 107 0.0 1.0 0.00 0.00 0.00 68 1017.6
20260510122102 51 32 0.0 0.0 0.00 0.00 0.00 69 1017.5
20260510122014 51 32 0.0 0.0 0.00 0.00 0.00 69 1017.6
20260510121924 51 32 0.0 0.0 0.00 0.00 0.00 69 1017.5
20260510121834 50 32 0.0 0.0 0.00 0.00 0.00 69 1017.6
20260510121744 50 32 0.0 0.0 0.00 0.00 0.00 68 1017.5
20260510121633 50 32 0.0 0.0 0.00 0.00 0.00 70 1017.5
20260510121535 50 32 0.0 0.0 0.00 0.00 0.00 70 1017.5
20260510121405 50 32 0.0 0.0 0.00 0.00 0.00 70 1017.4
20260510121258 49 32 0.0 0.0 0.00 0.00 0.00 70 1017.4
20260510121209 49 32 0.0 0.0 0.00 0.00 0.00 70 1017.5
20260510121100 49 32 0.0 0.0 0.00 0.00 0.00 71 1017.5
20260510121011 49 32 0.0 0.0 0.00 0.00 0.00 71 1017.5
20260510120923 49 32 0.0 0.0 0.00 0.00 0.00 72 1017.5
20260510120834 48 32 0.0 0.0 0.00 0.00 0.00 73 1017.5
20260510120724 48 32 0.0 0.0 0.00 0.00 0.00 73 1017.5
20260510120634 48 32 0.0 0.0 0.00 0.00 0.00 75 1017.4
20260510120505 47 32 0.0 0.0 0.00 0.00 0.00 75 1017.3
20260510120359 47 32 0.0 0.0 0.00 0.00 0.00 75 1017.4
20260510120312 47 32 0.0 0.0 0.00 0.00 0.00 76 1017.4
20260510120221 46 32 0.0 0.0 0.00 0.00 0.00 76 1017.4
20260510120132 46 32 0.0 0.0 0.00 0.00 0.00 76 1017.4
20260510120054 46 32 0.0 0.0 0.00 0.00 0.00 77 1017.3
20260510115903 45 32 0.0 0.0 0.00 0.00 0.00 78 1017.3
20260510115813 45 32 0.0 0.0 0.00 0.00 0.00 79 1017.3
20260510115705 44 32 0.0 0.0 0.00 0.00 0.00 79 1017.2
20260510115616 44 32 0.0 0.0 0.00 0.00 0.00 80 1017.2
20260510115527 44 32 0.0 0.0 0.00 0.00 0.00 80 1017.2
20260510115418 44 32 0.0 0.0 0.00 0.00 0.00 79 1017.2
20260510115332 44 32 0.0 0.0 0.00 0.00 0.00 79 1017.1
20260510115243 43 32 0.0 0.0 0.00 0.00 0.00 80 1017.1
20260510115113 43 32 0.0 0.0 0.00 0.00 0.00 80 1017.1
20260510115004 43 32 0.0 0.0 0.00 0.00 0.00 80 1017.1
20260510114914 43 32 0.0 0.0 0.00 0.00 0.00 81 1017.1
20260510114825 43 32 0.0 0.0 0.00 0.00 0.00 82 1017.1
20260510114715 43 32 0.0 0.0 0.00 0.00 0.00 82 1017.1
20260510114605 43 32 0.0 0.0 0.00 0.00 0.00 82 1017.1
20260510114526 43 32 0.0 0.0 0.00 0.00 0.00 83 1017.0
20260510114355 43 32 0.0 0.0 0.00 0.00 0.00 83 1017.1
20260510114310 43 32 0.0 0.0 0.00 0.00 0.00 84 1017.0
20260510114221 43 32 0.0 0.0 0.00 0.00 0.00 83 1017.0
20260510114111 43 32 0.0 0.0 0.00 0.00 0.00 83 1017.0
20260510114003 43 32 0.0 0.0 0.00 0.00 0.00 83 1017.0
20260510113914 43 32 0.0 0.0 0.00 0.00 0.00 83 1017.0
20260510113805 43 32 0.0 0.0 0.00 0.00 0.00 84 1017.0
20260510113715 43 32 0.0 0.0 0.00 0.00 0.00 84 1017.0
20260510113605 42 32 0.0 0.0 0.00 0.00 0.00 84 1016.9
20260510113516 42 32 0.0 0.0 0.00 0.00 0.00 84 1016.9
20260510113407 42 32 0.0 0.0 0.00 0.00 0.00 84 1016.9
20260510113304 42 32 0.0 0.0 0.00 0.00 0.00 85 1016.8
20260510113214 42 32 0.0 0.0 0.00 0.00 0.00 85 1016.9
20260510113106 41 32 0.0 0.0 0.00 0.00 0.00 85 1016.9
20260510113028 41 32 0.0 0.0 0.00 0.00 0.00 85 1016.8
20260510112919 41 32 0.0 0.0 0.00 0.00 0.00 84 1016.9
20260510112808 41 32 0.0 0.0 0.00 0.00 0.00 84 1016.8
20260510112700 41 32 0.0 0.0 0.00 0.00 0.00 84 1016.9
20260510112610 41 32 0.0 0.0 0.00 0.00 0.00 84 1016.7
20260510112501 41 32 0.0 0.0 0.00 0.00 0.00 85 1016.8
20260510112356 41 32 0.0 0.0 0.00 0.00 0.00 85 1016.7
20260510112308 41 32 0.0 0.0 0.00 0.00 0.00 85 1016.8
20260510112200 40 32 0.0 0.0 0.00 0.00 0.00 85 1016.7
20260510112110 40 32 0.0 0.0 0.00 0.00 0.00 86 1016.8
20260510112022 40 32 0.0 0.0 0.00 0.00 0.00 85 1016.7
20260510111913 40 32 0.0 0.0 0.00 0.00 0.00 85 1016.8
20260510111803 40 32 0.0 0.0 0.00 0.00 0.00 85 1016.8
20260510111714 40 32 0.0 0.0 0.00 0.00 0.00 84 1016.6
20260510111606 40 32 0.0 0.0 0.00 0.00 0.00 84 1016.6
20260510111531 40 32 0.0 0.0 0.00 0.00 0.00 84 1016.6
20260510111403 39 32 0.0 0.0 0.00 0.00 0.00 84 1016.6
20260510111314 39 32 0.0 0.0 0.00 0.00 0.00 84 1016.6
20260510111225 39 32 0.0 0.0 0.00 0.00 0.00 84 1016.5
20260510111136 39 32 0.0 0.0 0.00 0.00 0.00 84 1016.5
20260510111006 39 32 0.0 0.0 0.00 0.00 0.00 84 1016.5
20260510110917 39 32 0.0 0.0 0.00 0.00 0.00 84 1016.4
20260510110808 39 32 0.0 0.0 0.00 0.00 0.00 83 1016.5
20260510110658 39 32 0.0 0.0 0.00 0.00 0.00 83 1016.4
20260510110610 39 32 0.0 0.0 0.00 0.00 0.00 83 1016.5
20260510110524 39 32 0.0 0.0 0.00 0.00 0.00 83 1016.5
20260510110436 39 32 0.0 0.0 0.00 0.00 0.00 83 1016.4
20260510110349 39 32 0.0 0.0 0.00 0.00 0.00 83 1016.5
20260510110238 39 32 0.0 0.0 0.00 0.00 0.00 83 1016.4
20260510110127 39 32 0.0 0.0 0.00 0.00 0.00 83 1016.4
20260510110030 39 32 0.0 0.0 0.00 0.00 0.00 83 1016.4
20260510105900 39 32 0.0 0.0 0.00 0.00 0.00 83 1016.3
20260510105812 39 32 0.0 0.0 0.00 0.00 0.00 82 1016.4
20260510105702 39 32 0.0 0.0 0.00 0.00 0.00 82 1016.3
20260510105614 39 32 0.0 0.0 0.00 0.00 0.00 82 1016.3
20260510105508 39 32 0.0 0.0 0.00 0.00 0.00 82 1016.3
20260510105420 39 32 0.0 0.0 0.00 0.00 0.00 82 1016.3
20260510105332 39 32 0.0 0.0 0.00 0.00 0.00 82 1016.3
20260510105201 39 32 0.0 0.0 0.00 0.00 0.00 82 1016.2
20260510105112 39 32 0.0 0.0 0.00 0.00 0.00 82 1016.1
20260510105003 39 32 0.0 0.0 0.00 0.00 0.00 82 1016.2
20260510104913 40 32 0.0 0.0 0.00 0.00 0.00 82 1016.2
20260510104804 40 32 0.0 0.0 0.00 0.00 0.00 81 1016.2
20260510104714 40 32 0.0 0.0 0.00 0.00 0.00 81 1016.2
20260510104608 40 32 0.0 0.0 0.00 0.00 0.00 81 1016.3
20260510104532 40 32 0.0 0.0 0.00 0.00 0.00 81 1016.2
20260510104401 40 32 0.0 0.0 0.00 0.00 0.00 81 1016.1
20260510104311 40 32 0.0 0.0 0.00 0.00 0.00 81 1016.2
20260510104202 40 32 0.0 0.0 0.00 0.00 0.00 81 1016.2
20260510104113 40 32 0.0 0.0 0.00 0.00 0.00 81 1016.2
20260510104004 40 32 0.0 0.0 0.00 0.00 0.00 80 1016.1
20260510103856 40 32 0.0 0.0 0.00 0.00 0.00 80 1016.0
20260510103808 40 32 0.0 0.0 0.00 0.00 0.00 80 1016.0
20260510103723 40 32 0.0 0.0 0.00 0.00 0.00 80 1016.2
20260510103632 40 32 0.0 0.0 0.00 0.00 0.00 80 1016.0
20260510103504 40 32 0.0 0.0 0.00 0.00 0.00 80 1016.0
20260510103414 41 32 0.0 0.0 0.00 0.00 0.00 80 1016.0
20260510103308 41 32 0.0 0.0 0.00 0.00 0.00 80 1016.0
20260510103157 41 32 0.0 2.0 0.00 0.00 0.00 79 1016.0
20260510103108 41 32 0.0 2.0 0.00 0.00 0.00 79 1016.0
20260510103030 41 32 0.0 2.0 0.00 0.00 0.00 79 1016.0
20260510102920 41 32 0.0 2.0 0.00 0.00 0.00 79 1015.9
20260510102755 41 32 0.0 2.0 0.00 0.00 0.00 79 1016.0
20260510102705 41 32 0.0 2.0 0.00 0.00 0.00 79 1015.9
20260510102617 41 32 0.0 2.0 0.00 0.00 0.00 79 1015.9
20260510102527 41 32 0.0 2.0 0.00 0.00 0.00 79 1015.8
20260510102358 41 32 1.0 2.0 0.00 0.00 0.00 79 1015.8
20260510102309 41 32 2.0 2.0 0.00 0.00 0.00 79 1015.8
20260510102200 41 32 1.0 2.0 0.00 0.00 0.00 79 1015.8
20260510102111 41 32 1.0 2.0 0.00 0.00 0.00 79 1015.7
20260510102001 41 32 2.0 3.0 0.00 0.00 0.00 78 1015.7
20260510101912 41 32 2.0 3.0 0.00 0.00 0.00 78 1015.6
20260510101828 41 32 2.0 3.0 0.00 0.00 0.00 78 1015.6
20260510101656 42 32 2.0 3.0 0.00 0.00 0.00 78 1015.6
20260510101606 42 32 2.0 3.0 0.00 0.00 0.00 78 1015.5
20260510101527 42 32 2.0 3.0 0.00 0.00 0.00 78 1015.5
20260510101358 42 32 2.0 3.0 0.00 0.00 0.00 78 1015.5
20260510101309 42 32 2.0 3.0 0.00 0.00 0.00 77 1015.5
20260510101219 42 32 2.0 3.0 0.00 0.00 0.00 77 1015.4
20260510101131 42 32 2.0 3.0 0.00 0.00 0.00 77 1015.4
20260510101021 42 32 2.0 3.0 0.00 0.00 0.00 77 1015.5
20260510100912 42 32 2.0 3.0 0.00 0.00 0.00 77 1015.3
20260510100806 42 32 2.0 3.0 0.00 0.00 0.00 77 1015.3
20260510100718 42 32 2.0 3.0 0.00 0.00 0.00 77 1015.3
20260510100607 42 32 2.0 3.0 0.00 0.00 0.00 77 1015.3
20260510100518 42 32 2.0 3.0 0.00 0.00 0.00 77 1015.3
20260510100428 42 32 3.0 3.0 0.00 0.00 0.00 77 1015.2
20260510100300 42 32 2.0 3.0 0.00 0.00 0.00 77 1015.2
20260510100209 42 32 2.0 3.0 0.00 0.00 0.00 77 1015.3
20260510100059 42 32 2.0 3.0 0.00 0.00 0.00 77 1015.2
20260510100021 42 32 2.0 3.0 0.00 0.00 0.00 76 1015.2
20260510095910 43 32 2.0 3.0 0.00 0.00 0.00 76 1015.2
20260510095806 43 32 2.0 3.0 0.00 0.00 0.00 76 1015.2
20260510095656 43 32 2.0 3.0 0.00 0.00 0.00 76 1015.2
20260510095608 43 32 2.0 3.0 0.00 0.00 0.00 76 1015.3
20260510095519 43 32 2.0 3.0 0.00 0.00 0.00 76 1015.3
20260510095430 43 32 2.0 3.0 0.00 0.00 0.00 76 1015.3
20260510095305 43 32 2.0 3.0 0.00 0.00 0.00 76 1015.3
20260510095212 43 32 2.0 3.0 0.00 0.00 0.00 76 1015.3
20260510095103 43 32 2.0 3.0 0.00 0.00 0.00 76 1015.4
20260510095013 43 32 2.0 3.0 0.00 0.00 0.00 76 1015.4
20260510094909 43 32 2.0 3.0 0.00 0.00 0.00 75 1015.5
20260510094800 43 32 2.0 3.0 0.00 0.00 0.00 75 1015.5
20260510094711 43 32 1.0 3.0 0.00 0.00 0.00 75 1015.4
20260510094622 43 32 1.0 3.0 0.00 0.00 0.00 75 1015.5
20260510094544 43 32 1.0 3.0 0.00 0.00 0.00 75 1015.5
20260510094434 43 32 2.0 3.0 0.00 0.00 0.00 75 1015.4
20260510094305 43 32 2.0 3.0 0.00 0.00 0.00 75 1015.4
20260510094216 43 32 2.0 3.0 0.00 0.00 0.00 75 1015.3
20260510094128 43 32 2.0 3.0 0.00 0.00 0.00 75 1015.4
20260510094018 43 32 2.0 3.0 0.00 0.00 0.00 75 1015.4
20260510093931 43 32 2.0 3.0 0.00 0.00 0.00 75 1015.4
20260510093844 43 32 2.0 4.0 0.00 0.00 0.00 75 1015.4
20260510093733 43 32 2.0 4.0 0.00 0.00 0.00 75 1015.4
20260510093604 43 32 1.0 4.0 0.00 0.00 0.00 75 1015.4
20260510093514 43 32 0.0 4.0 0.00 0.00 0.00 75 1015.4
20260510093406 43 32 0.0 4.0 0.00 0.00 0.00 75 1015.3
20260510093320 43 32 0.0 4.0 0.00 0.00 0.00 75 1015.3
20260510093209 43 32 1.0 4.0 0.00 0.00 0.00 76 1015.3
20260510093059 43 32 2.0 4.0 0.00 0.00 0.00 76 1015.3
20260510093022 43 32 2.0 4.0 0.00 0.00 0.00 76 1015.2
20260510092856 44 90 1.0 4.0 0.00 0.00 0.00 76 1015.2
20260510092807 44 90 1.0 4.0 0.00 0.00 0.00 76 1015.2
20260510092659 44 90 1.0 4.0 0.00 0.00 0.00 76 1015.2
20260510092609 43 90 2.0 4.0 0.00 0.00 0.00 76 1015.2
20260510092521 44 90 2.0 4.0 0.00 0.00 0.00 76 1015.2
20260510092432 44 80 2.0 4.0 0.00 0.00 0.00 76 1015.2
20260510092306 44 54 2.0 4.0 0.00 0.00 0.00 76 1015.2
20260510092214 44 54 2.0 4.0 0.00 0.00 0.00 76 1015.2
20260510092105 44 25 2.0 4.0 0.00 0.00 0.00 76 1015.2
20260510091959 44 25 2.0 4.0 0.00 0.00 0.00 76 1015.2
20260510091911 44 25 2.0 4.0 0.00 0.00 0.00 76 1015.2
20260510091801 44 25 3.0 4.0 0.00 0.00 0.00 76 1015.2
20260510091711 44 34 2.0 3.0 0.00 0.00 0.00 76 1015.2
20260510091623 44 82 2.0 3.0 0.00 0.00 0.00 76 1015.1
20260510091547 44 82 2.0 3.0 0.00 0.00 0.00 76 1015.1
20260510091414 44 82 2.0 3.0 0.00 0.00 0.00 76 1015.0
20260510091305 44 82 2.0 3.0 0.00 0.00 0.00 76 1015.1
20260510091156 44 82 1.0 3.0 0.00 0.00 0.00 76 1015.1
20260510091107 44 82 1.0 3.0 0.00 0.00 0.00 76 1015.1
20260510091003 44 82 1.0 3.0 0.00 0.00 0.00 76 1015.1
20260510090915 44 82 1.0 3.0 0.00 0.00 0.00 76 1015.1
20260510090825 44 82 1.0 3.0 0.00 0.00 0.00 76 1015.1
20260510090655 44 82 1.0 3.0 0.00 0.00 0.00 76 1015.0
20260510090606 44 82 1.0 3.0 0.00 0.00 0.00 76 1015.1
20260510090458 44 82 0.0 3.0 0.00 0.00 0.00 77 1015.0
20260510090408 44 82 0.0 3.0 0.00 0.00 0.00 76 1015.0
20260510090259 44 82 0.0 4.0 0.00 0.00 0.00 77 1015.1
20260510090208 44 82 1.0 4.0 0.00 0.00 0.00 77 1015.1
20260510090021 44 82 1.0 4.0 0.00 0.00 0.00 77 1015.1
20260510085911 44 82 2.0 4.0 0.00 0.00 0.00 77 1015.0
20260510085801 44 82 2.0 4.0 0.00 0.00 0.00 77 1015.0
20260510085712 44 82 2.0 4.0 0.00 0.00 0.00 77 1015.0
20260510085604 44 82 2.0 4.0 0.00 0.00 0.00 77 1015.1
20260510085455 44 82 3.0 4.0 0.00 0.00 0.00 77 1015.0
20260510085408 44 67 3.0 4.0 0.00 0.00 0.00 77 1015.0
20260510085306 44 51 2.0 4.0 0.00 0.00 0.00 77 1015.1
20260510085213 44 74 3.0 4.0 0.00 0.00 0.00 77 1015.1
20260510085123 44 59 3.0 4.0 0.00 0.00 0.00 77 1015.0
20260510085013 44 67 3.0 4.0 0.00 0.00 0.00 78 1015.0
20260510084923 44 44 2.0 4.0 0.00 0.00 0.00 78 1015.0
20260510084812 44 44 2.0 4.0 0.00 0.00 0.00 78 1015.0
20260510084704 44 44 2.0 4.0 0.00 0.00 0.00 78 1014.8
20260510084614 44 44 2.0 4.0 0.00 0.00 0.00 78 1014.9
20260510084537 44 44 3.0 4.0 0.00 0.00 0.00 78 1015.0
20260510084406 44 44 2.0 4.0 0.00 0.00 0.00 78 1014.9
20260510084256 44 44 2.0 4.0 0.00 0.00 0.00 78 1014.9
20260510084212 44 44 2.0 4.0 0.00 0.00 0.00 78 1014.9
20260510084103 44 44 2.0 4.0 0.00 0.00 0.00 78 1014.9
20260510084014 44 44 2.0 4.0 0.00 0.00 0.00 78 1014.9
20260510083903 44 44 2.0 4.0 0.00 0.00 0.00 78 1014.9
20260510083755 44 57 2.0 4.0 0.00 0.00 0.00 78 1014.8
20260510083705 44 56 2.0 4.0 0.00 0.00 0.00 78 1014.9
20260510083555 44 56 2.0 4.0 0.00 0.00 0.00 78 1014.8
20260510083505 44 56 2.0 4.0 0.00 0.00 0.00 78 1014.8
20260510083359 44 56 2.0 4.0 0.00 0.00 0.00 78 1014.8
20260510083312 44 67 2.0 4.0 0.00 0.00 0.00 78 1014.7
20260510083201 44 65 2.0 4.0 0.00 0.00 0.00 78 1014.7
20260510083111 44 65 2.0 4.0 0.00 0.00 0.00 78 1014.7
20260510083034 44 65 2.0 4.0 0.00 0.00 0.00 78 1014.7
20260510082903 44 65 2.0 4.0 0.00 0.00 0.00 78 1014.6
20260510082814 44 65 2.0 7.0 0.00 0.00 0.00 78 1014.6
20260510082705 44 55 2.0 7.0 0.00 0.00 0.00 78 1014.4
20260510082616 44 70 2.0 7.0 0.00 0.00 0.00 78 1014.4
20260510082527 44 72 2.0 7.0 0.00 0.00 0.00 78 1014.4
20260510082400 44 72 2.0 7.0 0.00 0.00 0.00 79 1014.4
20260510082311 44 72 2.0 7.0 0.00 0.00 0.00 79 1014.2
20260510082201 44 72 2.0 7.0 0.00 0.00 0.00 79 1014.2
20260510082113 44 68 2.0 7.0 0.00 0.00 0.00 79 1014.1
20260510082003 44 65 3.0 7.0 0.00 0.00 0.00 79 1014.2
20260510081914 44 67 2.0 7.0 0.00 0.00 0.00 79 1014.2
20260510081805 44 61 3.0 7.0 0.00 0.00 0.00 79 1014.1
20260510081716 44 55 3.0 7.0 0.00 0.00 0.00 79 1014.1
20260510081627 44 49 4.0 7.0 0.00 0.00 0.00 79 1014.1
20260510081532 44 36 4.0 7.0 0.00 0.00 0.00 80 1014.1
20260510081421 44 31 3.0 6.0 0.00 0.00 0.00 80 1014.1
20260510081331 44 63 3.0 6.0 0.00 0.00 0.00 80 1013.9
20260510081201 44 55 4.0 6.0 0.00 0.00 0.00 80 1014.0
20260510081111 44 55 4.0 6.0 0.00 0.00 0.00 80 1014.0
20260510081001 44 30 4.0 6.0 0.00 0.00 0.00 80 1014.0
20260510080911 44 64 4.0 9.0 0.00 0.00 0.00 80 1013.9
20260510080822 44 32 4.0 9.0 0.00 0.00 0.00 80 1013.9
20260510080711 44 32 4.0 9.0 0.00 0.00 0.00 80 1013.9
20260510080602 44 23 4.0 9.0 0.00 0.00 0.00 80 1013.8
20260510080456 44 20 4.0 9.0 0.00 0.00 0.00 81 1014.0
20260510080408 44 13 4.0 9.0 0.00 0.00 0.00 81 1013.8
20260510080301 44 13 4.0 9.0 0.00 0.00 0.00 81 1013.8
20260510080213 44 342 5.0 9.0 0.00 0.00 0.00 81 1013.7
20260510080123 44 10 5.0 9.0 0.00 0.00 0.00 81 1013.7
20260510080045 44 46 5.0 9.0 0.00 0.00 0.00 82 1013.7
20260510075935 44 51 5.0 9.0 0.00 0.00 0.00 82 1013.7
20260510075806 44 72 5.0 9.0 0.00 0.00 0.00 82 1013.6
20260510075717 44 80 5.0 9.0 0.00 0.00 0.00 82 1013.6
20260510075627 44 76 4.0 7.0 0.00 0.00 0.00 83 1013.7
20260510075501 44 49 5.0 7.0 0.00 0.00 0.00 83 1013.7
20260510075410 44 37 4.0 6.0 0.00 0.00 0.00 83 1013.7
20260510075301 44 39 4.0 6.0 0.00 0.00 0.00 83 1013.7
20260510075212 44 23 4.0 6.0 0.00 0.00 0.00 83 1013.7
20260510075102 43 9 3.0 6.0 0.00 0.00 0.00 83 1013.6
20260510075012 43 5 4.0 6.0 0.00 0.00 0.00 84 1013.6
20260510074924 43 23 4.0 6.0 0.00 0.00 0.00 84 1013.5
20260510074814 43 28 4.0 9.0 0.00 0.00 0.00 84 1013.6
20260510074705 43 57 4.0 9.0 0.00 0.00 0.00 84 1013.6
20260510074619 43 32 4.0 9.0 0.00 0.00 0.00 84 1013.6
20260510074541 43 27 3.0 9.0 0.00 0.00 0.00 84 1013.6
20260510074431 43 23 4.0 9.0 0.00 0.00 0.00 84 1013.5
20260510074322 43 30 4.0 9.0 0.00 0.00 0.00 84 1013.6
20260510074234 43 32 4.0 9.0 0.00 0.00 0.00 84 1013.6
20260510074124 43 26 4.0 9.0 0.00 0.00 0.00 84 1013.5
20260510074034 43 13 4.0 7.0 0.00 0.00 0.00 84 1013.5
20260510073903 43 36 3.0 6.0 0.00 0.00 0.00 84 1013.4
20260510073812 43 13 3.0 5.0 0.00 0.00 0.00 84 1013.4
20260510073724 43 351 3.0 5.0 0.00 0.00 0.00 85 1013.4
20260510073634 43 17 3.0 5.0 0.00 0.00 0.00 85 1013.4
20260510073507 43 5 3.0 5.0 0.00 0.00 0.00 85 1013.3
20260510073359 43 40 4.0 5.0 0.00 0.00 0.00 85 1013.4
20260510073311 43 29 3.0 5.0 0.00 0.00 0.00 85 1013.3
20260510073219 43 30 4.0 5.0 0.00 0.00 0.00 85 1013.3
20260510073131 43 26 4.0 5.0 0.00 0.00 0.00 85 1013.3
20260510073033 43 5 3.0 5.0 0.00 0.00 0.00 85 1013.3
20260510072904 43 338 3.0 5.0 0.00 0.00 0.00 85 1013.2
20260510072813 43 5 3.0 5.0 0.00 0.00 0.00 85 1013.3
20260510072703 43 5 3.0 5.0 0.00 0.00 0.00 85 1013.1
20260510072614 43 20 3.0 4.0 0.00 0.00 0.00 85 1013.1
20260510072531 43 19 3.0 4.0 0.00 0.00 0.00 85 1013.1
20260510072420 43 28 3.0 4.0 0.00 0.00 0.00 85 1013.2
20260510072331 43 23 3.0 4.0 0.00 0.00 0.00 85 1013.2
20260510072200 43 9 3.0 4.0 0.00 0.00 0.00 85 1013.1
20260510072113 43 9 3.0 4.0 0.00 0.00 0.00 85 1013.2
20260510072024 43 5 3.0 4.0 0.00 0.00 0.00 85 1013.1
20260510071934 43 5 3.0 4.0 0.00 0.00 0.00 85 1013.1
20260510071805 43 5 3.0 4.0 0.00 0.00 0.00 85 1013.2
20260510071656 43 5 3.0 4.0 0.00 0.00 0.00 85 1013.1
20260510071607 43 5 3.0 4.0 0.00 0.00 0.00 85 1013.1
20260510071533 43 5 3.0 4.0 0.00 0.00 0.00 85 1013.1
20260510071403 43 5 3.0 4.0 0.00 0.00 0.00 85 1013.1
20260510071313 43 5 3.0 4.0 0.00 0.00 0.00 85 1013.1
20260510071223 43 5 3.0 4.0 0.00 0.00 0.00 85 1013.1
20260510071130 43 5 3.0 4.0 0.00 0.00 0.00 84 1013.1
20260510070958 43 9 3.0 4.0 0.00 0.00 0.00 84 1013.1
20260510070909 44 9 3.0 4.0 0.00 0.00 0.00 84 1013.1
20260510070759 44 351 2.0 4.0 0.00 0.00 0.00 84 1013.1
20260510070710 44 351 2.0 4.0 0.00 0.00 0.00 84 1013.0
20260510070622 44 351 3.0 4.0 0.00 0.00 0.00 84 1012.9
20260510070456 44 351 2.0 4.0 0.00 0.00 0.00 84 1012.9
20260510070406 44 351 0.0 3.0 0.00 0.00 0.00 84 1013.0
20260510070318 44 351 1.0 3.0 0.00 0.00 0.00 84 1012.9
20260510070226 44 351 0.0 3.0 0.00 0.00 0.00 84 1012.9
20260510070138 44 351 1.0 3.0 0.00 0.00 0.00 84 1012.8
20260510070100 44 351 1.0 3.0 0.00 0.00 0.00 84 1012.9
20260510065929 44 351 1.0 3.0 0.00 0.00 0.00 84 1012.9
20260510065839 44 351 1.0 3.0 0.00 0.00 0.00 84 1012.8
20260510065749 44 351 2.0 3.0 0.00 0.00 0.00 84 1012.9
20260510065640 44 351 2.0 3.0 0.00 0.00 0.00 84 1012.9
20260510065530 44 351 2.0 3.0 0.00 0.00 0.00 84 1012.9
20260510065403 44 351 2.0 3.0 0.00 0.00 0.00 84 1012.9
20260510065314 44 351 2.0 3.0 0.00 0.00 0.00 84 1012.9
20260510065204 44 351 2.0 4.0 0.00 0.00 0.00 84 1012.9
20260510065056 44 351 2.0 5.0 0.00 0.00 0.00 85 1012.9
20260510065008 44 351 2.0 5.0 0.00 0.00 0.00 85 1012.9
20260510064859 44 351 1.0 5.0 0.00 0.00 0.00 85 1012.8
20260510064810 44 351 1.0 5.0 0.00 0.00 0.00 85 1012.9
20260510064659 44 351 2.0 5.0 0.00 0.00 0.00 85 1012.8
20260510064611 44 351 2.0 5.0 0.00 0.00 0.00 85 1012.9
20260510064532 44 351 2.0 5.0 0.00 0.00 0.00 85 1012.8
20260510064405 44 329 3.0 5.0 0.00 0.00 0.00 85 1012.8
20260510064316 44 350 3.0 5.0 0.00 0.00 0.00 86 1012.8
20260510064226 44 5 2.0 4.0 0.00 0.00 0.00 86 1012.8
20260510064055 44 360 2.0 4.0 0.00 0.00 0.00 86 1012.8
20260510064006 44 360 2.0 4.0 0.00 0.00 0.00 86 1012.8
20260510063857 44 348 1.0 4.0 0.00 0.00 0.00 86 1012.7
20260510063806 44 348 2.0 4.0 0.00 0.00 0.00 87 1012.8
20260510063718 44 341 3.0 4.0 0.00 0.00 0.00 87 1012.8
20260510063629 44 355 3.0 4.0 0.00 0.00 0.00 87 1012.8
20260510063520 44 5 2.0 4.0 0.00 0.00 0.00 88 1012.7
20260510063410 43 355 3.0 4.0 0.00 0.00 0.00 88 1012.7
20260510063305 43 349 2.0 4.0 0.00 0.00 0.00 88 1012.7
20260510063214 43 342 2.0 4.0 0.00 0.00 0.00 89 1012.7
20260510063105 43 342 1.0 4.0 0.00 0.00 0.00 89 1012.7
20260510063027 43 338 2.0 4.0 0.00 0.00 0.00 89 1012.7
20260510062917 43 329 1.0 4.0 0.00 0.00 0.00 89 1012.6
20260510062807 43 340 0.0 2.0 0.00 0.00 0.00 89 1012.6
20260510062718 43 340 0.0 2.0 0.00 0.00 0.00 89 1012.6
20260510062629 42 340 0.0 2.0 0.00 0.00 0.00 89 1012.5
20260510062500 42 340 0.0 2.0 0.00 0.00 0.00 89 1012.6
20260510062410 42 340 0.0 2.0 0.00 0.00 0.00 89 1012.6
20260510062324 42 340 0.0 2.0 0.00 0.00 0.00 89 1012.5
20260510062235 42 340 0.0 2.0 0.00 0.00 0.00 89 1012.4
20260510062105 42 340 1.0 2.0 0.00 0.00 0.00 89 1012.4
20260510062014 42 340 1.0 2.0 0.00 0.00 0.00 89 1012.4
20260510061906 42 340 1.0 2.0 0.00 0.00 0.00 89 1012.3
20260510061756 42 340 0.0 0.0 0.00 0.00 0.00 89 1012.4
20260510061706 42 340 0.0 0.0 0.00 0.00 0.00 89 1012.3
20260510061617 42 340 0.0 0.0 0.00 0.00 0.00 89 1012.3
20260510061538 42 340 0.0 0.0 0.00 0.00 0.00 89 1012.2
20260510061408 42 340 0.0 0.0 0.00 0.00 0.00 89 1012.2
20260510061324 42 340 0.0 0.0 0.00 0.00 0.00 89 1012.2
20260510061155 42 340 0.0 0.0 0.00 0.00 0.00 89 1012.2
20260510061106 42 340 0.0 0.0 0.00 0.00 0.00 89 1012.2
20260510060958 42 340 0.0 0.0 0.00 0.00 0.00 89 1012.2
20260510060909 42 340 0.0 0.0 0.00 0.00 0.00 89 1012.2
20260510060801 42 340 0.0 0.0 0.00 0.00 0.00 89 1012.1
20260510060711 42 340 0.0 0.0 0.00 0.00 0.00 89 1012.1
20260510060622 42 340 0.0 0.0 0.00 0.00 0.00 89 1012.1
20260510060512 42 340 0.0 0.0 0.00 0.00 0.00 89 1012.2
20260510060407 42 340 0.0 0.0 0.00 0.00 0.00 89 1012.1
20260510060301 42 340 0.0 0.0 0.00 0.00 0.00 89 1012.1
20260510060209 42 340 0.0 0.0 0.00 0.00 0.00 89 1012.1
20260510060101 42 340 0.0 0.0 0.00 0.00 0.00 89 1012.1
20260510060024 42 340 0.0 0.0 0.00 0.00 0.00 88 1012.0
20260510055914 42 340 0.0 0.0 0.00 0.00 0.00 88 1012.1
20260510055804 42 340 0.0 0.0 0.00 0.00 0.00 88 1012.0
20260510055717 42 340 0.0 0.0 0.00 0.00 0.00 88 1012.1
20260510055627 42 340 0.0 0.0 0.00 0.00 0.00 88 1012.1
20260510055517 42 340 0.0 0.0 0.00 0.00 0.00 88 1012.0
20260510055432 43 340 0.0 0.0 0.00 0.00 0.00 88 1012.1
20260510055306 43 340 0.0 0.0 0.00 0.00 0.00 88 1012.0
20260510055211 43 340 0.0 0.0 0.00 0.00 0.00 88 1012.1
20260510055123 43 340 0.0 0.0 0.00 0.00 0.00 88 1012.0
20260510055033 43 340 0.0 0.0 0.00 0.00 0.00 88 1012.0
20260510054945 43 340 0.0 0.0 0.00 0.00 0.00 88 1012.0
20260510054835 43 340 0.0 0.0 0.00 0.00 0.00 88 1012.0
20260510054724 43 340 0.0 0.0 0.00 0.00 0.00 88 1012.0
20260510054635 43 340 0.0 0.0 0.00 0.00 0.00 88 1011.9
20260510054535 43 340 0.0 0.0 0.00 0.00 0.00 88 1011.9
20260510054406 43 340 0.0 0.0 0.00 0.00 0.00 88 1012.0
20260510054321 43 340 0.0 0.0 0.00 0.00 0.00 88 1011.9
20260510054212 43 340 0.0 0.0 0.00 0.00 0.00 88 1011.9
20260510054103 43 340 0.0 0.0 0.00 0.00 0.00 88 1011.9
20260510054015 43 340 0.0 0.0 0.00 0.00 0.00 88 1011.8
20260510053905 43 340 0.0 0.0 0.00 0.00 0.00 87 1011.9
20260510053817 43 340 0.0 0.0 0.00 0.00 0.00 87 1011.8
20260510053729 43 340 0.0 0.0 0.00 0.00 0.00 87 1011.8
20260510053559 43 340 0.0 0.0 0.00 0.00 0.00 87 1011.8
20260510053510 43 340 0.0 0.0 0.00 0.00 0.00 87 1011.8
20260510053420 43 340 0.0 0.0 0.00 0.00 0.00 87 1011.7
20260510053335 43 340 0.0 0.0 0.00 0.00 0.00 87 1011.7
20260510053224 43 340 0.0 0.0 0.00 0.00 0.00 87 1011.7
20260510053113 43 340 0.0 0.0 0.00 0.00 0.00 87 1011.6
20260510053035 43 340 0.0 0.0 0.00 0.00 0.00 87 1011.8
20260510052906 43 340 0.0 0.0 0.00 0.00 0.00 87 1011.7
20260510052756 43 340 0.0 0.0 0.00 0.00 0.00 86 1011.7
20260510052708 43 340 0.0 0.0 0.00 0.00 0.00 86 1011.7
20260510052559 43 340 0.0 0.0 0.00 0.00 0.00 86 1011.7
20260510052510 43 340 0.0 0.0 0.00 0.00 0.00 87 1011.7
20260510052406 43 340 0.0 0.0 0.00 0.00 0.00 87 1011.6
20260510052258 43 340 0.0 0.0 0.00 0.00 0.00 87 1011.6
20260510052208 44 340 0.0 0.0 0.00 0.00 0.00 87 1011.7
20260510052120 44 340 0.0 0.0 0.00 0.00 0.00 87 1011.7
20260510052032 44 340 0.0 0.0 0.00 0.00 0.00 86 1011.6
20260510051902 44 340 0.0 0.0 0.00 0.00 0.00 86 1011.5
20260510051814 44 340 0.0 0.0 0.00 0.00 0.00 86 1011.6
20260510051706 44 340 0.0 0.0 0.00 0.00 0.00 86 1011.5
20260510051616 44 340 0.0 0.0 0.00 0.00 0.00 86 1011.6
20260510051538 44 340 0.0 0.0 0.00 0.00 0.00 86 1011.6
20260510051431 44 340 0.0 0.0 0.00 0.00 0.00 86 1011.6
20260510051320 44 340 0.0 0.0 0.00 0.00 0.00 85 1011.5
20260510051232 44 340 0.0 0.0 0.00 0.00 0.00 85 1011.6
20260510051122 44 340 0.0 0.0 0.00 0.00 0.00 85 1011.6
20260510051011 44 340 0.0 0.0 0.00 0.00 0.00 85 1011.6
20260510050903 44 340 0.0 0.0 0.00 0.00 0.00 85 1011.4
20260510050813 44 340 0.0 0.0 0.00 0.00 0.00 85 1011.6
20260510050704 44 340 0.0 0.0 0.00 0.00 0.00 85 1011.5
20260510050555 44 340 0.0 0.0 0.00 0.00 0.00 85 1011.4
20260510050507 44 340 0.0 0.0 0.00 0.00 0.00 84 1011.5
20260510050421 44 340 0.0 0.0 0.00 0.00 0.00 84 1011.4
20260510050334 44 340 0.0 0.0 0.00 0.00 0.00 84 1011.4
20260510050201 44 340 0.0 0.0 0.00 0.00 0.00 84 1011.4
20260510050111 44 340 0.0 0.0 0.00 0.00 0.00 84 1011.3
20260510050033 44 340 0.0 0.0 0.00 0.00 0.00 84 1011.3
20260510045923 45 340 0.0 0.0 0.00 0.00 0.00 84 1011.3
20260510045813 45 340 0.0 0.0 0.00 0.00 0.00 84 1011.3
20260510045704 45 340 0.0 0.0 0.00 0.00 0.00 84 1011.4
20260510045616 45 340 0.0 0.0 0.00 0.00 0.00 84 1011.3
20260510045526 45 340 0.0 0.0 0.00 0.00 0.00 84 1011.4
20260510045416 45 340 0.0 0.0 0.00 0.00 0.00 83 1011.4
20260510045309 45 340 0.0 0.0 0.00 0.00 0.00 84 1011.4
20260510045201 45 340 0.0 0.0 0.00 0.00 0.00 84 1011.4
20260510045112 45 340 0.0 0.0 0.00 0.00 0.00 84 1011.3
20260510045022 45 340 0.0 0.0 0.00 0.00 0.00 84 1011.3
20260510044912 45 340 0.0 0.0 0.00 0.00 0.00 84 1011.2
20260510044802 45 340 0.0 0.0 0.00 0.00 0.00 84 1011.2
20260510044713 45 340 0.0 0.0 0.00 0.00 0.00 84 1011.1
20260510044605 45 340 0.0 0.0 0.00 0.00 0.00 84 1011.1
20260510044526 45 340 0.0 0.0 0.00 0.00 0.00 84 1011.1
20260510044359 45 340 0.0 0.0 0.00 0.00 0.00 83 1011.1
20260510044311 45 340 0.0 0.0 0.00 0.00 0.00 83 1011.0
20260510044202 45 340 0.0 0.0 0.00 0.00 0.00 83 1011.1
20260510044113 45 340 0.0 0.0 0.00 0.00 0.00 83 1011.0
20260510044004 45 340 0.0 0.0 0.00 0.00 0.00 83 1011.0
20260510043856 45 340 0.0 0.0 0.00 0.00 0.00 83 1011.0
20260510043806 45 340 0.0 0.0 0.00 0.00 0.00 83 1011.0
20260510043716 45 340 0.0 0.0 0.00 0.00 0.00 83 1011.0
20260510043628 45 340 0.0 0.0 0.00 0.00 0.00 83 1011.1
20260510043517 45 340 0.0 0.0 0.00 0.00 0.00 83 1011.0
20260510043432 45 340 0.0 0.0 0.00 0.00 0.00 82 1011.0
20260510043304 45 340 0.0 0.0 0.00 0.00 0.00 83 1011.0
20260510043214 45 340 0.0 0.0 0.00 0.00 0.00 82 1010.9
20260510043125 45 340 0.0 0.0 0.00 0.00 0.00 82 1010.9
20260510043027 45 340 0.0 0.0 0.00 0.00 0.00 82 1011.0
20260510042857 45 340 0.0 0.0 0.00 0.00 0.00 82 1010.8
20260510042807 45 340 0.0 0.0 0.00 0.00 0.00 82 1010.9
20260510042658 45 340 0.0 0.0 0.00 0.00 0.00 82 1010.9
20260510042611 45 340 0.0 0.0 0.00 0.00 0.00 82 1010.9
20260510042505 45 340 0.0 0.0 0.00 0.00 0.00 82 1010.9
20260510042417 46 340 0.0 0.0 0.00 0.00 0.00 82 1010.8
20260510042329 46 340 0.0 0.0 0.00 0.00 0.00 82 1011.0
20260510042158 46 340 0.0 0.0 0.00 0.00 0.00 82 1010.9
20260510042108 46 340 0.0 0.0 0.00 0.00 0.00 82 1010.9
20260510041959 46 340 0.0 0.0 0.00 0.00 0.00 82 1010.9
20260510041909 46 340 0.0 0.0 0.00 0.00 0.00 82 1010.9
20260510041800 46 340 0.0 0.0 0.00 0.00 0.00 81 1010.9
20260510041711 46 340 0.0 0.0 0.00 0.00 0.00 81 1010.9
20260510041606 46 340 0.0 0.0 0.00 0.00 0.00 81 1010.8
20260510041527 46 340 0.0 0.0 0.00 0.00 0.00 81 1010.8
20260510041356 46 340 0.0 0.0 0.00 0.00 0.00 81 1010.9
20260510041306 46 340 0.0 0.0 0.00 0.00 0.00 81 1010.9
20260510041217 46 340 0.0 0.0 0.00 0.00 0.00 80 1010.9
20260510041127 46 340 0.0 0.0 0.00 0.00 0.00 80 1010.8
20260510040956 46 340 0.0 0.0 0.00 0.00 0.00 80 1010.8
20260510040907 46 340 0.0 0.0 0.00 0.00 0.00 79 1010.9
20260510040817 46 340 0.0 0.0 0.00 0.00 0.00 79 1010.9
20260510040728 46 340 0.0 0.0 0.00 0.00 0.00 78 1010.9
20260510040602 46 340 0.0 0.0 0.00 0.00 0.00 78 1010.9
20260510040513 46 340 0.0 0.0 0.00 0.00 0.00 78 1010.9
20260510040404 47 340 0.0 0.0 0.00 0.00 0.00 78 1010.9
20260510040316 47 340 0.0 0.0 0.00 0.00 0.00 78 1011.0
20260510040205 47 340 0.0 0.0 0.00 0.00 0.00 77 1010.9
20260510040057 47 340 0.0 0.0 0.00 0.00 0.00 77 1010.9
20260510040019 47 340 0.0 0.0 0.00 0.00 0.00 77 1010.9
20260510035910 47 340 0.0 0.0 0.00 0.00 0.00 77 1010.9
20260510035813 47 340 0.0 0.0 0.00 0.00 0.00 77 1010.8
20260510035722 47 340 0.0 0.0 0.00 0.00 0.00 77 1010.8
20260510035557 47 340 0.0 0.0 0.00 0.00 0.00 77 1010.8
20260510035507 47 340 0.0 0.0 0.00 0.00 0.00 77 1010.9
20260510035357 47 340 0.0 0.0 0.00 0.00 0.00 77 1010.8
20260510035308 47 340 0.0 0.0 0.00 0.00 0.00 76 1010.8
20260510035220 47 340 0.0 0.0 0.00 0.00 0.00 76 1010.7
20260510035110 47 340 0.0 0.0 0.00 0.00 0.00 76 1010.8
20260510035022 47 340 0.0 0.0 0.00 0.00 0.00 76 1010.8
20260510034933 47 340 0.0 0.0 0.00 0.00 0.00 76 1010.7
20260510034822 47 340 0.0 0.0 0.00 0.00 0.00 76 1010.8
20260510034733 47 340 0.0 0.0 0.00 0.00 0.00 75 1010.8
20260510034607 47 340 0.0 0.0 0.00 0.00 0.00 76 1010.7
20260510034529 47 340 0.0 0.0 0.00 0.00 0.00 76 1010.8
20260510034421 47 340 0.0 0.0 0.00 0.00 0.00 75 1010.7
20260510034332 47 340 0.0 0.0 0.00 0.00 0.00 75 1010.7
20260510034202 48 340 0.0 0.0 0.00 0.00 0.00 76 1010.7
20260510034113 48 340 0.0 0.0 0.00 0.00 0.00 75 1010.7
20260510034002 48 340 0.0 0.0 0.00 0.00 0.00 76 1010.6
20260510033914 48 340 0.0 0.0 0.00 0.00 0.00 76 1010.6
20260510033804 48 340 0.0 0.0 0.00 0.00 0.00 75 1010.6
20260510033700 48 340 0.0 0.0 0.00 0.00 0.00 74 1010.7
20260510033610 48 340 0.0 0.0 0.00 0.00 0.00 74 1010.6
20260510033500 48 340 0.0 0.0 0.00 0.00 0.00 74 1010.6
20260510033411 48 340 0.0 0.0 0.00 0.00 0.00 73 1010.6
20260510033304 48 340 0.0 0.0 0.00 0.00 0.00 73 1010.6
20260510033214 48 340 0.0 0.0 0.00 0.00 0.00 73 1010.6
20260510033125 48 340 0.0 0.0 0.00 0.00 0.00 73 1010.6
20260510033046 48 340 0.0 0.0 0.00 0.00 0.00 72 1010.6
20260510032855 48 340 0.0 0.0 0.00 0.00 0.00 72 1010.5
20260510032805 49 340 0.0 0.0 0.00 0.00 0.00 72 1010.6
20260510032700 49 340 0.0 0.0 0.00 0.00 0.00 72 1010.5
20260510032611 49 340 0.0 0.0 0.00 0.00 0.00 71 1010.5
20260510032502 49 340 0.0 0.0 0.00 0.00 0.00 71 1010.4
20260510032414 49 340 0.0 0.0 0.00 0.00 0.00 71 1010.4
20260510032306 49 340 0.0 0.0 0.00 0.00 0.00 71 1010.4
20260510032155 49 340 0.0 0.0 0.00 0.00 0.00 71 1010.4
20260510032105 49 340 0.0 0.0 0.00 0.00 0.00 71 1010.3
20260510032017 49 340 0.0 0.0 0.00 0.00 0.00 71 1010.4
20260510031928 49 340 0.0 0.0 0.00 0.00 0.00 71 1010.4
20260510031802 49 340 0.0 0.0 0.00 0.00 0.00 71 1010.4
20260510031714 49 340 0.0 0.0 0.00 0.00 0.00 71 1010.4
20260510031625 50 340 0.0 0.0 0.00 0.00 0.00 71 1010.4
20260510031546 50 340 0.0 0.0 0.00 0.00 0.00 71 1010.3
20260510031414 50 340 0.0 1.0 0.00 0.00 0.00 71 1010.4
20260510031305 50 340 0.0 2.0 0.00 0.00 0.00 70 1010.3
20260510031215 50 340 0.0 2.0 0.00 0.00 0.00 69 1010.4
20260510031105 50 340 0.0 2.0 0.00 0.00 0.00 69 1010.4
20260510031017 50 340 0.0 2.0 0.00 0.00 0.00 69 1010.4
20260510030928 50 340 0.0 2.0 0.00 0.00 0.00 69 1010.4
20260510030822 50 340 0.0 2.0 0.00 0.00 0.00 68 1010.4
20260510030711 50 340 0.0 2.0 0.00 0.00 0.00 68 1010.4
20260510030604 50 340 1.0 2.0 0.00 0.00 0.00 67 1010.4
20260510030456 50 340 1.0 2.0 0.00 0.00 0.00 67 1010.4
20260510030408 50 340 1.0 2.0 0.00 0.00 0.00 67 1010.4
20260510030321 50 340 2.0 2.0 0.00 0.00 0.00 66 1010.3
20260510030229 50 340 2.0 2.0 0.00 0.00 0.00 67 1010.3
20260510030100 50 340 2.0 2.0 0.00 0.00 0.00 67 1010.3
20260510030022 50 340 2.0 2.0 0.00 0.00 0.00 68 1010.2
20260510025857 50 340 1.0 2.0 0.00 0.00 0.00 69 1010.2
20260510025808 50 340 0.0 2.0 0.00 0.00 0.00 68 1010.2
20260510025700 50 340 1.0 2.0 0.00 0.00 0.00 67 1010.2
20260510025611 50 340 1.0 2.0 0.00 0.00 0.00 68 1010.2
20260510025502 50 340 1.0 2.0 0.00 0.00 0.00 68 1010.2
20260510025412 50 340 1.0 2.0 0.00 0.00 0.00 68 1010.1
20260510025305 50 340 0.0 1.0 0.00 0.00 0.00 68 1010.2
20260510025213 51 340 0.0 1.0 0.00 0.00 0.00 68 1010.1
20260510025124 51 340 0.0 1.0 0.00 0.00 0.00 66 1010.2
20260510024957 51 340 0.0 0.0 0.00 0.00 0.00 66 1010.2
20260510024909 51 340 0.0 0.0 0.00 0.00 0.00 66 1010.1
20260510024820 51 340 0.0 0.0 0.00 0.00 0.00 66 1010.0
20260510024730 51 340 0.0 0.0 0.00 0.00 0.00 66 1010.1
20260510024640 51 340 0.0 0.0 0.00 0.00 0.00 66 1010.0
20260510024601 51 340 0.0 0.0 0.00 0.00 0.00 66 1010.0
20260510024429 51 340 0.0 0.0 0.00 0.00 0.00 66 1009.9
20260510024259 51 340 0.0 1.0 0.00 0.00 0.00 65 1010.0
20260510024209 51 340 0.0 1.0 0.00 0.00 0.00 65 1009.9
20260510024059 51 340 0.0 1.0 0.00 0.00 0.00 65 1009.8
20260510024011 51 340 0.0 1.0 0.00 0.00 0.00 65 1009.8
20260510023907 51 340 0.0 1.0 0.00 0.00 0.00 65 1009.9
20260510023758 51 340 0.0 1.0 0.00 0.00 0.00 64 1009.8
20260510023710 51 340 0.0 1.0 0.00 0.00 0.00 64 1009.8
20260510023621 52 340 0.0 1.0 0.00 0.00 0.00 64 1009.8
20260510023532 52 340 0.0 1.0 0.00 0.00 0.00 64 1009.7
20260510023421 52 340 0.0 0.0 0.00 0.00 0.00 63 1009.7
20260510023336 52 340 0.0 0.0 0.00 0.00 0.00 64 1009.8
20260510023204 52 340 0.0 0.0 0.00 0.00 0.00 63 1009.7
20260510023056 52 340 0.0 0.0 0.00 0.00 0.00 63 1009.7
20260510023021 52 340 0.0 0.0 0.00 0.00 0.00 63 1009.6
20260510022910 52 340 0.0 0.0 0.00 0.00 0.00 63 1009.6
20260510022802 52 340 0.0 0.0 0.00 0.00 0.00 63 1009.7
20260510022712 52 340 0.0 0.0 0.00 0.00 0.00 63 1009.6
20260510022603 52 340 0.0 0.0 0.00 0.00 0.00 62 1009.6
20260510022513 52 340 0.0 0.0 0.00 0.00 0.00 62 1009.6
20260510022423 53 340 0.0 0.0 0.00 0.00 0.00 62 1009.5
20260510022334 53 340 0.0 0.0 0.00 0.00 0.00 62 1009.6
20260510022202 53 340 0.0 0.0 0.00 0.00 0.00 62 1009.5
20260510022057 53 340 0.0 1.0 0.00 0.00 0.00 61 1009.6
20260510022007 53 340 0.0 1.0 0.00 0.00 0.00 61 1009.5
20260510021858 53 340 0.0 1.0 0.00 0.00 0.00 61 1009.4
20260510021807 53 340 0.0 1.0 0.00 0.00 0.00 61 1009.4
20260510021658 53 340 0.0 1.0 0.00 0.00 0.00 61 1009.4
20260510021609 53 340 0.0 1.0 0.00 0.00 0.00 60 1009.4
20260510021530 53 340 0.0 1.0 0.00 0.00 0.00 60 1009.4
20260510021359 53 340 0.0 1.0 0.00 0.00 0.00 60 1009.3
20260510021310 53 340 0.0 2.0 0.00 0.00 0.00 60 1009.3
20260510021115 53 331 0.0 2.0 0.00 0.00 0.00 60 1009.2
20260510021005 53 331 0.0 2.0 0.00 0.00 0.00 60 1009.1
20260510020855 53 331 0.0 2.0 0.00 0.00 0.00 60 1009.2
20260510020805 53 331 0.0 2.0 0.00 0.00 0.00 60 1009.2
20260510020715 53 331 0.0 2.0 0.00 0.00 0.00 60 1009.2
20260510020608 53 331 1.0 2.0 0.00 0.00 0.00 60 1009.1
20260510020459 54 331 1.0 4.0 0.00 0.00 0.00 59 1009.1
20260510020410 53 331 1.0 5.0 0.00 0.00 0.00 59 1009.0
20260510020325 54 331 1.0 5.0 0.00 0.00 0.00 60 1009.0
20260510020235 54 331 1.0 5.0 0.00 0.00 0.00 60 1009.1
20260510020116 54 331 1.0 5.0 0.00 0.00 0.00 60 1009.0
20260510020018 54 331 1.0 5.0 0.00 0.00 0.00 60 1009.1
20260510015908 54 331 1.0 5.0 0.00 0.00 0.00 60 1009.0
20260510015759 54 331 2.0 5.0 0.00 0.00 0.00 59 1008.9
20260510015711 54 331 2.0 5.0 0.00 0.00 0.00 59 1008.9
20260510015600 54 5 1.0 3.0 0.00 0.00 0.00 59 1008.9
20260510015512 54 5 1.0 3.0 0.00 0.00 0.00 59 1008.9
20260510015406 54 5 2.0 4.0 0.00 0.00 0.00 59 1008.8
20260510015258 54 5 2.0 4.0 0.00 0.00 0.00 59 1008.9
20260510015210 54 5 2.0 4.0 0.00 0.00 0.00 59 1008.7
20260510015100 54 5 1.0 4.0 0.00 0.00 0.00 59 1008.8
20260510015012 54 5 1.0 4.0 0.00 0.00 0.00 59 1008.8
20260510014903 54 5 2.0 8.0 0.00 0.00 0.00 59 1008.8
20260510014815 54 5 2.0 8.0 0.00 0.00 0.00 58 1008.8
20260510014706 54 5 3.0 8.0 0.00 0.00 0.00 58 1008.8
20260510014602 54 5 2.0 8.0 0.00 0.00 0.00 58 1008.9
20260510014523 54 5 2.0 8.0 0.00 0.00 0.00 58 1008.8
20260510014414 54 5 1.0 8.0 0.00 0.00 0.00 58 1008.8
20260510014325 54 5 2.0 8.0 0.00 0.00 0.00 58 1008.7
20260510014215 55 5 2.0 8.0 0.00 0.00 0.00 58 1008.7
20260510014102 55 5 3.0 8.0 0.00 0.00 0.00 57 1008.7
20260510014012 55 47 3.0 8.0 0.00 0.00 0.00 57 1008.7
20260510013923 55 22 2.0 5.0 0.00 0.00 0.00 57 1008.7
20260510013834 55 22 3.0 5.0 0.00 0.00 0.00 57 1008.6
20260510013703 55 17 2.0 5.0 0.00 0.00 0.00 57 1008.6
20260510013557 55 46 3.0 5.0 0.00 0.00 0.00 57 1008.6
20260510013508 55 44 3.0 5.0 0.00 0.00 0.00 57 1008.6
20260510013418 55 11 2.0 5.0 0.00 0.00 0.00 57 1008.6
20260510013309 55 25 2.0 5.0 0.00 0.00 0.00 57 1008.5
20260510013217 55 14 2.0 5.0 0.00 0.00 0.00 57 1008.5
20260510013129 55 14 2.0 5.0 0.00 0.00 0.00 57 1008.5
20260510013051 55 24 3.0 6.0 0.00 0.00 0.00 57 1008.5
20260510012941 55 28 3.0 9.0 0.00 0.00 0.00 56 1008.5
20260510012851 55 10 3.0 9.0 0.00 0.00 0.00 57 1008.5
20260510012740 55 23 3.0 9.0 0.00 0.00 0.00 56 1008.6
20260510012631 55 29 3.0 9.0 0.00 0.00 0.00 56 1008.4
20260510012500 55 38 3.0 9.0 0.00 0.00 0.00 56 1008.3
20260510012356 55 18 4.0 9.0 0.00 0.00 0.00 55 1008.4
20260510012307 55 9 5.0 9.0 0.00 0.00 0.00 55 1008.4
20260510012215 55 14 5.0 9.0 0.00 0.00 0.00 55 1008.3
20260510012107 55 15 4.0 9.0 0.00 0.00 0.00 56 1008.3
20260510011957 55 19 3.0 6.0 0.00 0.00 0.00 56 1008.2
20260510011908 55 23 4.0 6.0 0.00 0.00 0.00 56 1008.3
20260510011820 56 24 4.0 6.0 0.00 0.00 0.00 56 1008.2
20260510011730 56 28 3.0 6.0 0.00 0.00 0.00 56 1008.2
20260510011601 56 24 3.0 5.0 0.00 0.00 0.00 56 1008.2
20260510011527 56 29 2.0 5.0 0.00 0.00 0.00 56 1008.2
20260510011355 56 5 3.0 5.0 0.00 0.00 0.00 56 1008.1
20260510011307 56 360 3.0 5.0 0.00 0.00 0.00 55 1008.1
20260510011157 56 27 3.0 5.0 0.00 0.00 0.00 56 1008.1
20260510011108 56 5 3.0 5.0 0.00 0.00 0.00 56 1008.1
20260510010959 56 28 3.0 5.0 0.00 0.00 0.00 56 1007.9
20260510010911 56 360 4.0 5.0 0.00 0.00 0.00 55 1007.9
20260510010821 56 5 3.0 6.0 0.00 0.00 0.00 56 1007.9
20260510010733 56 25 3.0 10.0 0.00 0.00 0.00 56 1007.8
20260510010606 56 15 3.0 10.0 0.00 0.00 0.00 55 1007.8
20260510010517 56 14 3.0 10.0 0.00 0.00 0.00 56 1007.8
20260510010406 56 5 3.0 10.0 0.00 0.00 0.00 56 1007.8
20260510010258 56 31 4.0 10.0 0.00 0.00 0.00 56 1007.7
20260510010208 56 5 4.0 10.0 0.00 0.00 0.00 55 1007.7
20260510010100 57 11 4.0 10.0 0.00 0.00 0.00 56 1007.7
20260510010020 57 18 5.0 10.0 0.00 0.00 0.00 56 1007.7
20260510005910 57 5 7.0 10.0 0.00 0.00 0.00 54 1007.7
20260510005800 57 360 5.0 10.0 0.00 0.00 0.00 55 1007.7
20260510005709 57 355 5.0 9.0 0.00 0.00 0.00 56 1007.6
20260510005605 57 49 5.0 9.0 0.00 0.00 0.00 56 1007.5
20260510005455 57 30 4.0 9.0 0.00 0.00 0.00 56 1007.6
20260510005406 57 12 5.0 9.0 0.00 0.00 0.00 56 1007.5
20260510005257 57 13 5.0 9.0 0.00 0.00 0.00 55 1007.6
20260510005207 57 27 5.0 8.0 0.00 0.00 0.00 56 1007.6
20260510005059 57 5 5.0 8.0 0.00 0.00 0.00 56 1007.5
20260510005009 57 15 4.0 8.0 0.00 0.00 0.00 56 1007.5
20260510004901 57 14 4.0 11.0 0.00 0.00 0.00 56 1007.5
20260510004816 58 360 4.0 11.0 0.00 0.00 0.00 56 1007.5
20260510004727 58 14 4.0 11.0 0.00 0.00 0.00 56 1007.4
20260510004617 58 348 4.0 11.0 0.00 0.00 0.00 55 1007.5
20260510004540 58 27 4.0 11.0 0.00 0.00 0.00 55 1007.5
20260510004430 58 20 5.0 11.0 0.00 0.00 0.00 55 1007.5
20260510004341 58 355 4.0 11.0 0.00 0.00 0.00 55 1007.5
20260510004231 58 20 5.0 11.0 0.00 0.00 0.00 55 1007.4
20260510004101 58 5 7.0 11.0 0.00 0.00 0.00 54 1007.4
20260510004011 58 5 6.0 11.0 0.00 0.00 0.00 54 1007.5
20260510003902 58 12 6.0 12.0 0.00 0.00 0.00 54 1007.4
20260510003756 58 24 6.0 12.0 0.00 0.00 0.00 54 1007.4
20260510003707 58 25 7.0 12.0 0.00 0.00 0.00 54 1007.3
20260510003600 58 350 7.0 12.0 0.00 0.00 0.00 55 1007.4
20260510003510 58 355 6.0 12.0 0.00 0.00 0.00 55 1007.4
20260510003400 58 22 7.0 12.0 0.00 0.00 0.00 55 1007.3
20260510003314 58 13 8.0 12.0 0.00 0.00 0.00 54 1007.3
20260510003222 59 333 7.0 12.0 0.00 0.00 0.00 55 1007.3
20260510003113 59 340 7.0 12.0 0.00 0.00 0.00 54 1007.3
20260510003036 59 341 7.0 12.0 0.00 0.00 0.00 55 1007.3
20260510002904 59 13 9.0 12.0 0.00 0.00 0.00 55 1007.2
20260510002758 59 21 9.0 12.0 0.00 0.00 0.00 56 1007.1
20260510002708 59 43 7.0 11.0 0.00 0.00 0.00 57 1007.1
20260510002559 59 9 5.0 11.0 0.00 0.00 0.00 57 1007.1
20260510002510 59 13 4.0 10.0 0.00 0.00 0.00 57 1007.1
20260510002422 59 13 4.0 10.0 0.00 0.00 0.00 57 1007.1
20260510002333 59 28 5.0 10.0 0.00 0.00 0.00 57 1007.0
20260510002223 59 18 5.0 10.0 0.00 0.00 0.00 57 1007.0
20260510002133 59 350 4.0 10.0 0.00 0.00 0.00 58 1007.1
20260510002002 59 342 4.0 10.0 0.00 0.00 0.00 58 1007.0
20260510001858 59 339 5.0 11.0 0.00 0.00 0.00 57 1007.0
20260510001808 59 360 6.0 11.0 0.00 0.00 0.00 57 1007.0
20260510001659 59 17 6.0 11.0 0.00 0.00 0.00 57 1007.0
20260510001609 59 348 4.0 11.0 0.00 0.00 0.00 57 1007.0
20260510001531 59 5 4.0 11.0 0.00 0.00 0.00 57 1007.0
20260510001422 59 360 4.0 11.0 0.00 0.00 0.00 57 1007.0
20260510001332 59 360 4.0 11.0 0.00 0.00 0.00 57 1007.0
20260510001243 59 5 6.0 11.0 0.00 0.00 0.00 57 1007.0
20260510001133 59 355 7.0 11.0 0.00 0.00 0.00 57 1007.0
20260510001002 59 355 5.0 10.0 0.00 0.00 0.00 57 1006.9
20260510000856 59 5 4.0 10.0 0.00 0.00 0.00 58 1006.9
20260510000805 59 30 5.0 10.0 0.00 0.00 0.00 57 1006.9
20260510000715 60 342 5.0 10.0 0.00 0.00 0.00 57 1006.9
20260510000606 60 5 5.0 10.0 0.00 0.00 0.00 58 1006.9
20260510000457 60 10 4.0 10.0 0.00 0.00 0.00 58 1006.9
20260510000408 60 346 4.0 10.0 0.00 0.00 0.00 58 1006.9
20260510000319 60 348 4.0 10.0 0.00 0.00 0.00 58 1006.9
20260510000228 60 339 6.0 12.0 0.00 0.00 0.00 57 1006.8
20260510000117 60 5 7.0 12.0 0.00 0.00 0.00 57 1006.7
20260510000040 60 355 6.0 13.0 0.00 0.00 0.00 57 1006.7
20260509235930 60 5 6.0 13.0 0.00 0.00 0.00 57 1006.7
20260509235804 60 349 6.0 13.0 0.00 0.00 0.00 56 1006.7
20260509235715 60 355 6.0 13.0 0.00 0.00 0.00 57 1006.7
20260509235606 60 341 5.0 13.0 0.00 0.00 0.00 57 1006.6
20260509235500 60 355 8.0 13.0 0.00 0.00 0.00 56 1006.6
20260509235410 60 333 10.0 13.0 0.00 0.00 0.00 55 1006.6
20260509235300 60 348 10.0 13.0 0.00 0.00 0.00 55 1006.6
20260509235211 60 11 9.0 14.0 0.00 0.00 0.00 56 1006.6
20260509235101 61 351 8.0 14.0 0.00 0.00 0.00 56 1006.5
20260509234956 61 342 8.0 14.0 0.00 0.00 0.00 55 1006.6
20260509234907 61 355 7.0 15.0 0.00 0.00 0.00 55 1006.5
20260509234817 61 5 6.0 15.0 0.00 0.00 0.00 55 1006.5
20260509234707 61 5 5.0 15.0 0.00 0.00 0.00 55 1006.4
20260509234617 61 278 7.0 15.0 0.00 0.00 0.00 54 1006.4
20260509234540 61 355 8.0 15.0 0.00 0.00 0.00 54 1006.5
20260509234431 62 355 10.0 15.0 0.00 0.00 0.00 54 1006.4
20260509234301 62 309 9.0 15.0 0.00 0.00 0.00 53 1006.4
20260509234212 62 355 7.0 18.0 0.00 0.00 0.00 52 1006.3
20260509234103 62 355 6.0 19.0 0.00 0.00 0.00 53 1006.4
20260509233957 62 349 7.0 19.0 0.00 0.00 0.00 53 1006.3
20260509233907 63 360 8.0 19.0 0.00 0.00 0.00 52 1006.3
20260509233759 63 343 8.0 19.0 0.00 0.00 0.00 51 1006.2
20260509233708 63 326 8.0 19.0 0.00 0.00 0.00 50 1006.1
20260509233600 63 304 9.0 19.0 0.00 0.00 0.00 50 1006.1
20260509233512 63 319 12.0 19.0 0.00 0.00 0.00 50 1006.0
20260509233403 64 317 10.0 19.0 0.00 0.00 0.00 49 1005.9
20260509233314 64 323 7.0 18.0 0.00 0.00 0.00 49 1006.0
20260509233224 64 321 9.0 18.0 0.00 0.00 0.00 49 1006.0
20260509233139 64 324 10.0 18.0 0.00 0.00 0.00 48 1005.9
20260509233100 64 302 10.0 18.0 0.00 0.00 0.00 48 1005.9
20260509232929 65 5 12.0 18.0 0.00 0.00 0.00 47 1005.8
20260509232758 65 329 11.0 18.0 0.00 0.00 0.00 47 1005.9
20260509232710 65 329 9.0 16.0 0.00 0.00 0.00 47 1005.8
20260509232601 65 325 9.0 16.0 0.00 0.00 0.00 46 1005.7
20260509232513 65 342 9.0 16.0 0.00 0.00 0.00 47 1005.7
20260509232403 65 332 10.0 16.0 0.00 0.00 0.00 46 1005.6
20260509232314 66 317 9.0 16.0 0.00 0.00 0.00 46 1005.6
20260509232210 66 325 8.0 16.0 0.00 0.00 0.00 46 1005.6
20260509232102 66 304 6.0 16.0 0.00 0.00 0.00 46 1005.5
20260509232011 66 313 6.0 16.0 0.00 0.00 0.00 46 1005.5
20260509231922 66 317 9.0 18.0 0.00 0.00 0.00 46 1005.6
20260509231812 66 317 9.0 18.0 0.00 0.00 0.00 45 1005.5
20260509231702 66 319 8.0 18.0 0.00 0.00 0.00 46 1005.5
20260509231613 66 316 7.0 18.0 0.00 0.00 0.00 46 1005.5
20260509231535 66 355 7.0 18.0 0.00 0.00 0.00 46 1005.4
20260509231425 66 304 6.0 20.0 0.00 0.00 0.00 45 1005.4
20260509231314 66 332 9.0 20.0 0.00 0.00 0.00 45 1005.2
20260509231208 67 355 11.0 20.0 0.00 0.00 0.00 44 1005.3
20260509231059 67 350 11.0 20.0 0.00 0.00 0.00 44 1005.4
20260509231011 67 311 10.0 20.0 0.00 0.00 0.00 44 1005.3
20260509230901 67 301 11.0 20.0 0.00 0.00 0.00 44 1005.2
20260509230811 67 326 10.0 20.0 0.00 0.00 0.00 43 1005.2
20260509230722 67 310 12.0 20.0 0.00 0.00 0.00 43 1005.2
20260509230631 67 306 13.0 20.0 0.00 0.00 0.00 43 1005.2
20260509230522 68 284 11.0 18.0 0.00 0.00 0.00 43 1005.1
20260509230411 68 327 9.0 18.0 0.00 0.00 0.00 45 1005.1
20260509230303 68 338 9.0 18.0 0.00 0.00 0.00 45 1005.1
20260509230157 68 281 11.0 18.0 0.00 0.00 0.00 43 1005.0
20260509230108 68 315 10.0 18.0 0.00 0.00 0.00 43 1004.9
20260509230030 68 306 10.0 18.0 0.00 0.00 0.00 43 1004.9
20260509225900 68 355 9.0 14.0 0.00 0.00 0.00 44 1005.0
20260509225810 68 322 8.0 14.0 0.00 0.00 0.00 44 1005.0
20260509225701 68 324 7.0 15.0 0.00 0.00 0.00 44 1004.9
20260509225612 68 271 7.0 15.0 0.00 0.00 0.00 44 1004.9
20260509225504 68 338 9.0 15.0 0.00 0.00 0.00 44 1004.9
20260509225357 68 309 9.0 15.0 0.00 0.00 0.00 43 1004.9
20260509225311 68 292 9.0 15.0 0.00 0.00 0.00 43 1004.8
20260509225203 68 289 9.0 15.0 0.00 0.00 0.00 43 1004.7
20260509225113 68 311 10.0 15.0 0.00 0.00 0.00 42 1004.7
20260509225024 68 298 10.0 15.0 0.00 0.00 0.00 42 1004.7
20260509224934 69 296 9.0 15.0 0.00 0.00 0.00 43 1004.7
20260509224805 69 279 6.0 13.0 0.00 0.00 0.00 44 1004.7
20260509224655 69 311 8.0 13.0 0.00 0.00 0.00 43 1004.6
20260509224607 69 330 9.0 13.0 0.00 0.00 0.00 42 1004.6
20260509224530 69 309 8.0 13.0 0.00 0.00 0.00 44 1004.7
20260509224404 69 279 7.0 12.0 0.00 0.00 0.00 43 1004.7
20260509224314 69 284 6.0 12.0 0.00 0.00 0.00 43 1004.6
20260509224206 69 283 5.0 16.0 0.00 0.00 0.00 43 1004.6
20260509224116 69 307 5.0 16.0 0.00 0.00 0.00 43 1004.6
20260509224027 69 286 7.0 16.0 0.00 0.00 0.00 43 1004.5
20260509223857 70 276 8.0 16.0 0.00 0.00 0.00 42 1004.5
20260509223808 70 294 7.0 18.0 0.00 0.00 0.00 43 1004.5
20260509223659 70 274 6.0 18.0 0.00 0.00 0.00 43 1004.4
20260509223610 70 288 6.0 18.0 0.00 0.00 0.00 42 1004.4
20260509223505 70 284 9.0 18.0 0.00 0.00 0.00 42 1004.4
20260509223355 70 308 9.0 18.0 0.00 0.00 0.00 41 1004.4
20260509223308 70 290 9.0 18.0 0.00 0.00 0.00 41 1004.4
20260509223159 70 282 10.0 18.0 0.00 0.00 0.00 42 1004.4
20260509223111 70 279 10.0 18.0 0.00 0.00 0.00 42 1004.3
20260509223032 70 274 9.0 18.0 0.00 0.00 0.00 42 1004.3
20260509222902 70 291 7.0 12.0 0.00 0.00 0.00 44 1004.3
20260509222812 70 275 7.0 12.0 0.00 0.00 0.00 44 1004.3
20260509222707 70 306 7.0 12.0 0.00 0.00 0.00 42 1004.3
20260509222618 70 280 7.0 16.0 0.00 0.00 0.00 42 1004.2
20260509222528 70 286 7.0 16.0 0.00 0.00 0.00 43 1004.2
20260509222359 70 256 5.0 16.0 0.00 0.00 0.00 43 1004.3
20260509222308 70 257 5.0 16.0 0.00 0.00 0.00 43 1004.2
20260509222220 70 264 5.0 16.0 0.00 0.00 0.00 43 1004.1
20260509222109 70 293 6.0 16.0 0.00 0.00 0.00 43 1004.2
20260509222001 70 291 8.0 16.0 0.00 0.00 0.00 42 1004.2
20260509221911 70 275 10.0 16.0 0.00 0.00 0.00 41 1004.2
20260509221822 70 306 10.0 16.0 0.00 0.00 0.00 41 1004.2
20260509221732 70 252 7.0 16.0 0.00 0.00 0.00 41 1004.2
20260509221627 70 263 7.0 16.0 0.00 0.00 0.00 42 1004.2
20260509221549 70 259 7.0 13.0 0.00 0.00 0.00 41 1004.1
20260509221357 70 227 5.0 15.0 0.00 0.00 0.00 42 1004.1
20260509221308 70 313 5.0 15.0 0.00 0.00 0.00 42 1004.2
20260509221157 70 282 6.0 15.0 0.00 0.00 0.00 41 1004.2
20260509221108 70 281 6.0 15.0 0.00 0.00 0.00 41 1004.2
20260509220959 70 292 7.0 15.0 0.00 0.00 0.00 42 1004.3
20260509220908 71 273 7.0 15.0 0.00 0.00 0.00 42 1004.1
20260509220800 71 235 7.0 16.0 0.00 0.00 0.00 41 1004.2
20260509220711 71 315 7.0 16.0 0.00 0.00 0.00 42 1004.3
20260509220607 71 290 6.0 16.0 0.00 0.00 0.00 43 1004.1
20260509220517 71 263 6.0 16.0 0.00 0.00 0.00 42 1004.2
20260509220428 71 264 6.0 16.0 0.00 0.00 0.00 41 1004.2
20260509220342 71 292 6.0 16.0 0.00 0.00 0.00 42 1004.2
20260509220229 71 240 7.0 16.0 0.00 0.00 0.00 44 1004.3
20260509220059 71 279 8.0 16.0 0.00 0.00 0.00 43 1004.2
20260509220019 71 257 8.0 16.0 0.00 0.00 0.00 43 1004.2
20260509215908 71 266 7.0 14.0 0.00 0.00 0.00 43 1004.2
20260509215759 71 239 6.0 14.0 0.00 0.00 0.00 44 1004.2
20260509215709 71 248 6.0 14.0 0.00 0.00 0.00 43 1004.2
20260509215624 71 295 7.0 14.0 0.00 0.00 0.00 43 1004.2
20260509215534 71 277 8.0 14.0 0.00 0.00 0.00 43 1004.2
20260509215423 71 273 8.0 14.0 0.00 0.00 0.00 45 1004.1
20260509215312 71 222 9.0 14.0 0.00 0.00 0.00 44 1004.2
20260509215223 70 267 9.0 14.0 0.00 0.00 0.00 44 1004.2
20260509215133 70 256 8.0 14.0 0.00 0.00 0.00 44 1004.1
20260509215002 70 230 7.0 13.0 0.00 0.00 0.00 44 1004.2
20260509214915 71 257 7.0 13.0 0.00 0.00 0.00 44 1004.2
20260509214825 71 258 7.0 15.0 0.00 0.00 0.00 45 1004.2
20260509214714 71 222 7.0 15.0 0.00 0.00 0.00 44 1004.1
20260509214605 71 285 6.0 15.0 0.00 0.00 0.00 45 1004.1
20260509214531 71 280 5.0 15.0 0.00 0.00 0.00 45 1004.2
20260509214401 71 254 5.0 15.0 0.00 0.00 0.00 46 1004.1
20260509214312 71 319 5.0 15.0 0.00 0.00 0.00 47 1004.1
20260509214203 71 263 6.0 15.0 0.00 0.00 0.00 47 1004.1
20260509214113 71 242 7.0 15.0 0.00 0.00 0.00 46 1004.1
20260509214024 71 284 8.0 15.0 0.00 0.00 0.00 46 1004.1
20260509213914 71 274 7.0 13.0 0.00 0.00 0.00 47 1004.0
20260509213804 71 235 7.0 14.0 0.00 0.00 0.00 46 1004.1
20260509213655 70 256 6.0 14.0 0.00 0.00 0.00 47 1004.1
20260509213609 70 265 5.0 14.0 0.00 0.00 0.00 47 1004.0
20260509213522 70 247 5.0 14.0 0.00 0.00 0.00 48 1004.1
20260509213432 70 283 6.0 14.0 0.00 0.00 0.00 48 1004.1
20260509213304 70 257 7.0 14.0 0.00 0.00 0.00 47 1004.1
20260509213155 70 279 5.0 14.0 0.00 0.00 0.00 49 1004.1
20260509213116 70 240 6.0 19.0 0.00 0.00 0.00 50 1004.1
20260509213018 70 304 8.0 19.0 0.00 0.00 0.00 48 1004.1
20260509212907 70 244 7.0 19.0 0.00 0.00 0.00 50 1004.0
20260509212759 70 240 7.0 19.0 0.00 0.00 0.00 48 1004.1
20260509212709 70 298 7.0 19.0 0.00 0.00 0.00 48 1004.1
20260509212605 70 276 6.0 19.0 0.00 0.00 0.00 50 1004.1
20260509212456 70 326 7.0 19.0 0.00 0.00 0.00 49 1004.1
20260509212406 70 236 9.0 19.0 0.00 0.00 0.00 48 1004.2
20260509212257 70 304 8.0 19.0 0.00 0.00 0.00 48 1004.1
20260509212207 70 246 6.0 16.0 0.00 0.00 0.00 47 1004.1
20260509212059 70 284 7.0 16.0 0.00 0.00 0.00 46 1004.1
20260509212010 70 273 8.0 16.0 0.00 0.00 0.00 48 1004.1
20260509211900 70 300 7.0 16.0 0.00 0.00 0.00 48 1004.1
20260509211814 70 265 7.0 16.0 0.00 0.00 0.00 48 1004.1
20260509211705 70 254 7.0 16.0 0.00 0.00 0.00 49 1004.1
20260509211616 70 252 6.0 16.0 0.00 0.00 0.00 50 1004.1
20260509211518 70 252 7.0 16.0 0.00 0.00 0.00 50 1004.1
20260509211407 70 306 8.0 16.0 0.00 0.00 0.00 49 1004.1
20260509211259 70 281 6.0 16.0 0.00 0.00 0.00 49 1004.1
20260509211209 70 280 6.0 16.0 0.00 0.00 0.00 49 1004.1
20260509211100 70 261 6.0 16.0 0.00 0.00 0.00 50 1004.1
20260509211011 71 277 6.0 15.0 0.00 0.00 0.00 50 1004.1
20260509210905 71 289 6.0 15.0 0.00 0.00 0.00 50 1004.0
20260509210755 71 269 7.0 15.0 0.00 0.00 0.00 49 1004.0
20260509210707 71 292 6.0 15.0 0.00 0.00 0.00 49 1004.0
20260509210558 71 300 6.0 15.0 0.00 0.00 0.00 51 1004.0
20260509210509 71 263 6.0 16.0 0.00 0.00 0.00 51 1003.9
20260509210400 71 268 5.0 16.0 0.00 0.00 0.00 52 1004.0
20260509210314 71 288 6.0 16.0 0.00 0.00 0.00 49 1004.0
20260509210222 71 253 7.0 16.0 0.00 0.00 0.00 50 1003.9
20260509210131 71 265 6.0 16.0 0.00 0.00 0.00 50 1004.0
20260509210032 71 257 5.0 16.0 0.00 0.00 0.00 52 1003.9
20260509205906 70 235 7.0 16.0 0.00 0.00 0.00 50 1004.0
20260509205817 70 286 8.0 16.0 0.00 0.00 0.00 49 1004.0
20260509205727 70 266 9.0 16.0 0.00 0.00 0.00 49 1003.9
20260509205556 71 338 7.0 16.0 0.00 0.00 0.00 49 1004.0
20260509205508 71 254 7.0 14.0 0.00 0.00 0.00 52 1004.1
20260509205419 71 257 6.0 14.0 0.00 0.00 0.00 50 1003.9
20260509205328 70 309 5.0 13.0 0.00 0.00 0.00 52 1004.0
20260509205239 70 252 5.0 13.0 0.00 0.00 0.00 52 1004.0
20260509205128 70 90 5.0 13.0 0.00 0.00 0.00 52 1004.1
20260509205017 70 236 6.0 13.0 0.00 0.00 0.00 52 1004.0
20260509204928 70 273 7.0 13.0 0.00 0.00 0.00 51 1004.1
20260509204801 70 244 7.0 13.0 0.00 0.00 0.00 51 1004.0
20260509204713 70 245 7.0 13.0 0.00 0.00 0.00 51 1004.0
20260509204615 70 265 7.0 13.0 0.00 0.00 0.00 55 1004.1
20260509204516 69 242 6.0 13.0 0.00 0.00 0.00 54 1004.0
20260509204407 69 242 4.0 12.0 0.00 0.00 0.00 58 1004.1
20260509204257 69 254 4.0 15.0 0.00 0.00 0.00 59 1004.1
20260509204207 69 269 4.0 15.0 0.00 0.00 0.00 60 1004.1
20260509204056 68 304 2.0 15.0 0.00 0.00 0.00 57 1004.0
20260509204006 68 230 2.0 15.0 0.00 0.00 0.00 58 1004.0
20260509203921 68 254 4.0 15.0 0.00 0.00 0.00 57 1004.1
20260509203831 68 273 5.0 15.0 0.00 0.00 0.00 55 1004.1
20260509203742 68 294 6.0 15.0 0.00 0.00 0.00 56 1004.1
20260509203631 68 288 8.0 15.0 0.00 0.00 0.00 55 1004.1
20260509203520 68 258 6.0 15.0 0.00 0.00 0.00 56 1004.2
20260509203431 68 290 4.0 12.0 0.00 0.00 0.00 57 1004.2
20260509203302 68 264 6.0 12.0 0.00 0.00 0.00 56 1004.2
20260509203212 68 275 7.0 15.0 0.00 0.00 0.00 56 1004.2
20260509203104 68 286 6.0 15.0 0.00 0.00 0.00 56 1004.3
20260509203027 68 254 7.0 15.0 0.00 0.00 0.00 55 1004.3
20260509202902 68 241 7.0 15.0 0.00 0.00 0.00 56 1004.2
20260509202813 68 297 6.0 15.0 0.00 0.00 0.00 55 1004.2
20260509202705 68 254 5.0 15.0 0.00 0.00 0.00 57 1004.2
20260509202555 68 294 6.0 15.0 0.00 0.00 0.00 55 1004.2
20260509202507 68 229 6.0 15.0 0.00 0.00 0.00 55 1004.2
20260509202357 68 228 6.0 15.0 0.00 0.00 0.00 55 1004.2
20260509202307 68 250 6.0 13.0 0.00 0.00 0.00 56 1004.3
20260509202217 68 255 5.0 12.0 0.00 0.00 0.00 55 1004.2
20260509202129 68 259 4.0 12.0 0.00 0.00 0.00 59 1004.4
20260509202040 68 258 4.0 12.0 0.00 0.00 0.00 58 1004.3
20260509201934 68 268 5.0 12.0 0.00 0.00 0.00 56 1004.4
20260509201805 68 286 6.0 12.0 0.00 0.00 0.00 55 1004.3
20260509201715 68 236 6.0 12.0 0.00 0.00 0.00 56 1004.3
20260509201606 68 263 6.0 12.0 0.00 0.00 0.00 55 1004.3
20260509201528 68 235 6.0 12.0 0.00 0.00 0.00 55 1004.3
20260509201358 68 238 7.0 13.0 0.00 0.00 0.00 56 1004.4
20260509201310 68 241 7.0 13.0 0.00 0.00 0.00 57 1004.4
20260509201202 68 269 6.0 13.0 0.00 0.00 0.00 57 1004.3
20260509201056 68 279 6.0 13.0 0.00 0.00 0.00 58 1004.4
20260509201007 68 251 7.0 13.0 0.00 0.00 0.00 57 1004.4
20260509200856 68 304 4.0 13.0 0.00 0.00 0.00 57 1004.3
20260509200808 68 323 4.0 13.0 0.00 0.00 0.00 57 1004.3
20260509200658 68 242 7.0 13.0 0.00 0.00 0.00 56 1004.3
20260509200609 68 274 8.0 13.0 0.00 0.00 0.00 56 1004.3
20260509200500 68 238 6.0 13.0 0.00 0.00 0.00 56 1004.3
20260509200411 68 239 4.0 9.0 0.00 0.00 0.00 58 1004.4
20260509200324 68 270 3.0 9.0 0.00 0.00 0.00 58 1004.4
20260509200156 68 236 4.0 9.0 0.00 0.00 0.00 59 1004.4
20260509200106 68 266 3.0 9.0 0.00 0.00 0.00 59 1004.3
20260509200028 68 220 3.0 9.0 0.00 0.00 0.00 61 1004.4
20260509195917 67 232 4.0 9.0 0.00 0.00 0.00 61 1004.4
20260509195828 67 230 4.0 9.0 0.00 0.00 0.00 59 1004.3
20260509195658 67 163 4.0 8.0 0.00 0.00 0.00 60 1004.5
20260509195609 67 241 5.0 8.0 0.00 0.00 0.00 60 1004.4
20260509195500 67 244 4.0 9.0 0.00 0.00 0.00 60 1004.4
20260509195410 67 250 4.0 9.0 0.00 0.00 0.00 60 1004.4
20260509195259 67 246 5.0 9.0 0.00 0.00 0.00 60 1004.4
20260509195215 67 311 5.0 9.0 0.00 0.00 0.00 60 1004.4
20260509195105 67 249 4.0 9.0 0.00 0.00 0.00 61 1004.3
20260509195017 67 223 5.0 9.0 0.00 0.00 0.00 60 1004.3
20260509194926 67 247 4.0 9.0 0.00 0.00 0.00 61 1004.3
20260509194757 66 237 3.0 9.0 0.00 0.00 0.00 60 1004.3
20260509194707 66 250 4.0 9.0 0.00 0.00 0.00 61 1004.4
20260509194558 66 220 4.0 9.0 0.00 0.00 0.00 60 1004.5
20260509194520 66 242 4.0 9.0 0.00 0.00 0.00 61 1004.5
20260509194409 66 217 5.0 9.0 0.00 0.00 0.00 60 1004.5
20260509194304 66 234 5.0 9.0 0.00 0.00 0.00 62 1004.5
20260509194214 66 242 4.0 9.0 0.00 0.00 0.00 61 1004.6
20260509194105 66 153 3.0 9.0 0.00 0.00 0.00 63 1004.6
20260509194016 65 215 4.0 9.0 0.00 0.00 0.00 62 1004.7
20260509193927 65 242 4.0 9.0 0.00 0.00 0.00 62 1004.6
20260509193838 65 227 5.0 9.0 0.00 0.00 0.00 62 1004.7
20260509193727 65 242 4.0 7.0 0.00 0.00 0.00 62 1004.7
20260509193556 65 160 3.0 7.0 0.00 0.00 0.00 63 1004.6
20260509193507 65 248 3.0 7.0 0.00 0.00 0.00 64 1004.6
20260509193358 65 238 3.0 5.0 0.00 0.00 0.00 65 1004.7
20260509193314 65 236 3.0 5.0 0.00 0.00 0.00 66 1004.8
20260509193223 65 241 3.0 6.0 0.00 0.00 0.00 65 1004.8
20260509193134 65 246 3.0 8.0 0.00 0.00 0.00 64 1004.8
20260509193056 64 231 3.0 8.0 0.00 0.00 0.00 65 1004.8
20260509192903 64 242 3.0 8.0 0.00 0.00 0.00 66 1004.7
20260509192815 64 250 3.0 8.0 0.00 0.00 0.00 66 1004.8
20260509192706 64 236 3.0 8.0 0.00 0.00 0.00 66 1004.9
20260509192617 64 210 2.0 8.0 0.00 0.00 0.00 65 1004.9
20260509192505 64 223 3.0 9.0 0.00 0.00 0.00 65 1005.0
20260509192356 64 256 4.0 9.0 0.00 0.00 0.00 64 1005.0
20260509192311 64 251 4.0 9.0 0.00 0.00 0.00 65 1005.0
20260509192203 64 236 4.0 9.0 0.00 0.00 0.00 66 1005.2
20260509192114 64 283 3.0 9.0 0.00 0.00 0.00 66 1005.0
20260509192005 64 276 4.0 9.0 0.00 0.00 0.00 66 1005.0
20260509191856 64 238 5.0 9.0 0.00 0.00 0.00 66 1005.1
20260509191806 64 259 4.0 9.0 0.00 0.00 0.00 67 1005.0
20260509191658 64 234 2.0 9.0 0.00 0.00 0.00 67 1005.1
20260509191608 64 234 2.0 9.0 0.00 0.00 0.00 67 1005.1
20260509191531 64 234 3.0 9.0 0.00 0.00 0.00 66 1005.1
20260509191424 64 244 4.0 9.0 0.00 0.00 0.00 66 1005.1
20260509191336 64 252 4.0 9.0 0.00 0.00 0.00 66 1005.2
20260509191204 64 261 3.0 9.0 0.00 0.00 0.00 67 1005.1
20260509191056 64 247 3.0 7.0 0.00 0.00 0.00 68 1005.2
20260509191006 64 239 2.0 7.0 0.00 0.00 0.00 68 1005.1
20260509190917 64 254 2.0 7.0 0.00 0.00 0.00 67 1005.1
20260509190827 63 261 3.0 5.0 0.00 0.00 0.00 68 1005.1
20260509190712 64 243 2.0 5.0 0.00 0.00 0.00 67 1005.0
20260509190603 64 254 2.0 5.0 0.00 0.00 0.00 67 1005.1
20260509190457 63 271 2.0 8.0 0.00 0.00 0.00 67 1005.0
20260509190409 64 271 3.0 8.0 0.00 0.00 0.00 67 1005.0
20260509190323 64 283 3.0 9.0 0.00 0.00 0.00 67 1005.0
20260509190210 63 283 2.0 9.0 0.00 0.00 0.00 67 1005.0
20260509190121 63 286 2.0 9.0 0.00 0.00 0.00 67 1005.1
20260509190042 63 241 2.0 9.0 0.00 0.00 0.00 67 1005.1
20260509185932 63 259 2.0 9.0 0.00 0.00 0.00 67 1005.2
20260509185801 63 244 3.0 9.0 0.00 0.00 0.00 67 1005.2
20260509185711 63 237 4.0 9.0 0.00 0.00 0.00 66 1005.1
20260509185621 63 300 4.0 9.0 0.00 0.00 0.00 67 1005.1
20260509185534 63 290 4.0 9.0 0.00 0.00 0.00 68 1005.1
20260509185408 63 248 3.0 7.0 0.00 0.00 0.00 68 1005.1
20260509185259 63 257 3.0 7.0 0.00 0.00 0.00 67 1005.0
20260509185211 63 250 3.0 7.0 0.00 0.00 0.00 68 1005.0
20260509185101 63 275 4.0 7.0 0.00 0.00 0.00 68 1005.0
20260509185013 63 223 3.0 10.0 0.00 0.00 0.00 68 1005.0
20260509184905 63 241 3.0 10.0 0.00 0.00 0.00 68 1005.1
20260509184815 63 244 3.0 10.0 0.00 0.00 0.00 68 1005.0
20260509184704 63 235 3.0 10.0 0.00 0.00 0.00 68 1005.1
20260509184600 63 282 3.0 10.0 0.00 0.00 0.00 68 1005.2
20260509184523 63 258 3.0 10.0 0.00 0.00 0.00 68 1005.2
20260509184413 63 281 3.0 10.0 0.00 0.00 0.00 68 1005.1
20260509184303 63 250 4.0 10.0 0.00 0.00 0.00 68 1005.2
20260509184215 63 237 3.0 10.0 0.00 0.00 0.00 68 1005.2
20260509184105 63 260 2.0 8.0 0.00 0.00 0.00 68 1005.2
20260509184014 63 226 2.0 8.0 0.00 0.00 0.00 68 1005.3
20260509183906 63 298 2.0 9.0 0.00 0.00 0.00 68 1005.2
20260509183817 63 309 2.0 9.0 0.00 0.00 0.00 68 1005.3
20260509183730 63 262 3.0 9.0 0.00 0.00 0.00 68 1005.2
20260509183603 63 275 4.0 10.0 0.00 0.00 0.00 67 1005.4
20260509183515 63 275 5.0 11.0 0.00 0.00 0.00 68 1005.4
20260509183406 63 254 4.0 11.0 0.00 0.00 0.00 68 1005.3
20260509183318 63 281 4.0 11.0 0.00 0.00 0.00 69 1005.3
20260509183207 63 248 5.0 11.0 0.00 0.00 0.00 69 1005.3
20260509183117 63 308 2.0 13.0 0.00 0.00 0.00 69 1005.3
20260509183017 63 215 2.0 13.0 0.00 0.00 0.00 70 1005.4
20260509182908 63 267 3.0 13.0 0.00 0.00 0.00 69 1005.3
20260509182758 63 267 6.0 13.0 0.00 0.00 0.00 68 1005.2
20260509182709 63 284 5.0 13.0 0.00 0.00 0.00 68 1005.2
20260509182623 63 301 3.0 13.0 0.00 0.00 0.00 69 1005.1
20260509182534 63 262 2.0 13.0 0.00 0.00 0.00 69 1005.2
20260509182404 63 239 5.0 13.0 0.00 0.00 0.00 69 1005.2
20260509182255 63 253 6.0 13.0 0.00 0.00 0.00 69 1005.2
20260509182207 63 295 5.0 13.0 0.00 0.00 0.00 69 1005.2
20260509182059 63 294 5.0 11.0 0.00 0.00 0.00 68 1005.2
20260509182010 63 290 3.0 11.0 0.00 0.00 0.00 69 1005.2
20260509181901 63 271 3.0 13.0 0.00 0.00 0.00 69 1005.2
20260509181756 63 286 5.0 13.0 0.00 0.00 0.00 69 1005.2
20260509181708 63 281 5.0 13.0 0.00 0.00 0.00 68 1005.2
20260509181559 64 242 6.0 15.0 0.00 0.00 0.00 67 1005.2
20260509181521 63 261 7.0 15.0 0.00 0.00 0.00 67 1005.2
20260509181411 64 287 6.0 15.0 0.00 0.00 0.00 67 1005.2
20260509181321 63 265 6.0 15.0 0.00 0.00 0.00 68 1005.2
20260509181231 64 271 8.0 15.0 0.00 0.00 0.00 67 1005.2
20260509181120 64 286 9.0 15.0 0.00 0.00 0.00 67 1005.3
20260509181011 64 327 10.0 15.0 0.00 0.00 0.00 68 1005.2
20260509180900 64 281 9.0 15.0 0.00 0.00 0.00 68 1005.2
20260509180811 64 287 9.0 15.0 0.00 0.00 0.00 68 1005.2
20260509180705 64 296 6.0 13.0 0.00 0.00 0.00 69 1005.3
20260509180615 64 284 5.0 10.0 0.00 0.00 0.00 69 1005.2
20260509180505 64 273 4.0 10.0 0.00 0.00 0.00 69 1005.1
20260509180357 64 311 4.0 10.0 0.00 0.00 0.00 69 1005.1
20260509180309 64 265 5.0 10.0 0.00 0.00 0.00 69 1005.2
20260509180158 64 277 5.0 12.0 0.00 0.00 0.00 69 1005.0
20260509180109 64 254 5.0 12.0 0.00 0.00 0.00 69 1005.1
20260509180030 64 281 5.0 12.0 0.00 0.00 0.00 69 1005.1
20260509175922 64 296 5.0 12.0 0.00 0.00 0.00 70 1005.2
20260509175815 64 255 4.0 12.0 0.00 0.00 0.00 70 1005.2
20260509175706 64 297 3.0 12.0 0.00 0.00 0.00 71 1005.2
20260509175557 64 242 5.0 12.0 0.00 0.00 0.00 70 1005.1
20260509175508 64 277 6.0 12.0 0.00 0.00 0.00 69 1005.0
20260509175359 64 261 5.0 11.0 0.00 0.00 0.00 70 1004.9
20260509175310 64 269 4.0 11.0 0.00 0.00 0.00 70 1004.8
20260509175200 64 248 3.0 11.0 0.00 0.00 0.00 71 1004.9
20260509175111 64 271 2.0 11.0 0.00 0.00 0.00 71 1004.8
20260509175006 64 275 4.0 16.0 0.00 0.00 0.00 70 1004.8
20260509174916 64 255 6.0 16.0 0.00 0.00 0.00 70 1004.7
20260509174827 64 254 5.0 16.0 0.00 0.00 0.00 70 1004.8
20260509174738 64 232 4.0 16.0 0.00 0.00 0.00 71 1004.9
20260509174629 64 278 6.0 16.0 0.00 0.00 0.00 70 1004.8
20260509174550 64 280 6.0 16.0 0.00 0.00 0.00 70 1004.8
20260509174359 64 311 4.0 16.0 0.00 0.00 0.00 71 1004.7
20260509174310 64 280 5.0 16.0 0.00 0.00 0.00 70 1004.7
20260509174200 64 251 7.0 16.0 0.00 0.00 0.00 69 1004.8
20260509174113 64 314 7.0 16.0 0.00 0.00 0.00 71 1004.8
20260509174007 64 276 7.0 13.0 0.00 0.00 0.00 71 1005.0
20260509173918 64 282 6.0 13.0 0.00 0.00 0.00 71 1005.0
20260509173828 64 321 6.0 13.0 0.00 0.00 0.00 72 1005.0
20260509173656 64 306 7.0 13.0 0.00 0.00 0.00 71 1004.9
20260509173608 64 261 6.0 12.0 0.00 0.00 0.00 72 1005.0
20260509173459 64 290 6.0 12.0 0.00 0.00 0.00 72 1005.0
20260509173410 64 279 6.0 12.0 0.00 0.00 0.00 72 1004.9
20260509173324 64 309 6.0 12.0 0.00 0.00 0.00 71 1004.8
20260509173211 64 267 6.0 12.0 0.00 0.00 0.00 71 1004.8
20260509173102 64 236 5.0 12.0 0.00 0.00 0.00 71 1004.8
20260509173028 64 288 4.0 12.0 0.00 0.00 0.00 71 1004.8